Wetterdaten: Montag, 16.08.2021
Datum Zeit Temp. Aussen Temp. o. S. Temp +5cm Feuchte Auss Luftdruck Regen Sonnenschein Regendauer Solar Windben Empfang
16.08.2021 00:00 19,7 C 18,9 C 16,7 C 80 % 1010,6 hPa 0,0 l/m 0 min 0 min 0 W/m 9,7 km/h (2 Bft) 100,00 %
16.08.2021 00:02 19,6 C 18,9 C 16,7 C 80 % 1010,6 hPa 0,0 l/m 0 min 0 min 0 W/m 6,4 km/h (2 Bft) 97,44 %
16.08.2021 00:04 19,6 C 18,3 C 16,7 C 81 % 1010,7 hPa 0,0 l/m 0 min 0 min 0 W/m 9,7 km/h (2 Bft) 93,62 %
16.08.2021 00:08 19,5 C 18,3 C 16,7 C 81 % 1010,7 hPa 0,0 l/m 0 min 0 min 0 W/m 12,9 km/h (3 Bft) 100,00 %
16.08.2021 00:10 19,5 C 18,3 C 16,1 C 81 % 1010,7 hPa 0,0 l/m 0 min 0 min 0 W/m 9,7 km/h (2 Bft) 100,00 %
16.08.2021 00:12 19,4 C 18,3 C 16,1 C 82 % 1010,7 hPa 0,0 l/m 0 min 0 min 0 W/m 16,1 km/h (3 Bft) 100,00 %
16.08.2021 00:14 19,4 C 18,3 C 16,1 C 82 % 1010,7 hPa 0,0 l/m 0 min 0 min 0 W/m 12,9 km/h (3 Bft) 100,00 %
16.08.2021 00:16 19,4 C 18,3 C 16,1 C 82 % 1010,7 hPa 0,0 l/m 0 min 0 min 0 W/m 6,4 km/h (2 Bft) 100,00 %
16.08.2021 00:18 19,3 C 18,3 C 16,1 C 82 % 1010,8 hPa 0,0 l/m 0 min 0 min 0 W/m 6,4 km/h (2 Bft) 97,87 %
16.08.2021 00:20 19,3 C 18,3 C 16,7 C 83 % 1010,8 hPa 0,0 l/m 0 min 0 min 0 W/m 12,9 km/h (3 Bft) 100,00 %
16.08.2021 00:22 19,3 C 18,3 C 16,7 C 83 % 1010,8 hPa 0,0 l/m 0 min 0 min 0 W/m 6,4 km/h (2 Bft) 100,00 %
16.08.2021 00:24 19,3 C 18,3 C 16,7 C 83 % 1010,8 hPa 0,0 l/m 0 min 0 min 0 W/m 6,4 km/h (2 Bft) 100,00 %
16.08.2021 00:26 19,3 C 18,3 C 16,7 C 83 % 1010,8 hPa 0,0 l/m 0 min 0 min 0 W/m 6,4 km/h (2 Bft) 100,00 %
16.08.2021 00:28 19,3 C 18,3 C 16,7 C 83 % 1010,8 hPa 0,0 l/m 0 min 0 min 0 W/m 6,4 km/h (2 Bft) 100,00 %
16.08.2021 00:30 19,3 C 18,3 C 16,7 C 83 % 1010,8 hPa 0,0 l/m 0 min 0 min 0 W/m 6,4 km/h (2 Bft) 100,00 %
16.08.2021 00:32 19,3 C 18,3 C 16,7 C 83 % 1010,7 hPa 0,0 l/m 0 min 0 min 0 W/m 12,9 km/h (3 Bft) 100,00 %
16.08.2021 00:34 19,3 C 18,3 C 16,1 C 83 % 1010,7 hPa 0,0 l/m 0 min 0 min 0 W/m 9,7 km/h (2 Bft) 100,00 %
16.08.2021 00:36 19,3 C 18,3 C 16,1 C 83 % 1010,7 hPa 0,0 l/m 0 min 0 min 0 W/m 9,7 km/h (2 Bft) 97,87 %
16.08.2021 00:38 19,3 C 18,3 C 16,1 C 83 % 1010,7 hPa 0,0 l/m 0 min 0 min 0 W/m 6,4 km/h (2 Bft) 97,87 %
16.08.2021 00:40 19,2 C 18,3 C 16,1 C 83 % 1010,7 hPa 0,0 l/m 0 min 0 min 0 W/m 6,4 km/h (2 Bft) 97,83 %
16.08.2021 00:42 19,1 C 18,3 C 16,1 C 83 % 1010,7 hPa 0,0 l/m 0 min 0 min 0 W/m 6,4 km/h (2 Bft) 97,87 %
16.08.2021 00:44 19,1 C 18,3 C 16,1 C 83 % 1010,7 hPa 0,0 l/m 0 min 0 min 0 W/m 3,2 km/h (1 Bft) 97,87 %
16.08.2021 00:46 19,1 C 18,3 C 16,1 C 83 % 1010,8 hPa 0,0 l/m 0 min 0 min 0 W/m 6,4 km/h (2 Bft) 97,87 %
16.08.2021 00:48 19,1 C 18,3 C 16,1 C 83 % 1010,8 hPa 0,0 l/m 0 min 0 min 0 W/m 3,2 km/h (1 Bft) 97,87 %
16.08.2021 00:50 19,0 C 18,3 C 16,1 C 83 % 1010,8 hPa 0,0 l/m 0 min 0 min 0 W/m 6,4 km/h (2 Bft) 97,87 %
16.08.2021 00:52 19,0 C 18,3 C 16,1 C 83 % 1010,8 hPa 0,0 l/m 0 min 0 min 0 W/m 6,4 km/h (2 Bft) 97,83 %
16.08.2021 00:54 19,0 C 18,3 C 16,1 C 83 % 1010,7 hPa 0,0 l/m 0 min 0 min 0 W/m 3,2 km/h (1 Bft) 97,87 %
16.08.2021 00:56 19,0 C 17,8 C 16,1 C 83 % 1010,8 hPa 0,0 l/m 0 min 0 min 0 W/m 9,7 km/h (2 Bft) 97,87 %
16.08.2021 00:58 19,0 C 17,8 C 16,1 C 83 % 1010,7 hPa 0,0 l/m 0 min 0 min 0 W/m 6,4 km/h (2 Bft) 97,87 %
16.08.2021 01:00 19,0 C 17,8 C 16,1 C 83 % 1010,7 hPa 0,0 l/m 0 min 0 min 0 W/m 6,4 km/h (2 Bft) 97,87 %
16.08.2021 01:02 18,9 C 17,8 C 16,1 C 84 % 1010,7 hPa 0,0 l/m 0 min 0 min 0 W/m 6,4 km/h (2 Bft) 95,74 %
16.08.2021 01:04 18,9 C 17,8 C 16,1 C 84 % 1010,7 hPa 0,0 l/m 0 min 0 min 0 W/m 3,2 km/h (1 Bft) 95,65 %
16.08.2021 01:06 18,9 C 17,8 C 16,1 C 84 % 1010,8 hPa 0,0 l/m 0 min 0 min 0 W/m 6,4 km/h (2 Bft) 95,74 %
16.08.2021 01:08 18,9 C 17,8 C 16,1 C 84 % 1010,8 hPa 0,0 l/m 0 min 0 min 0 W/m 3,2 km/h (1 Bft) 97,87 %
16.08.2021 01:10 18,8 C 17,8 C 16,1 C 84 % 1010,7 hPa 0,0 l/m 0 min 0 min 0 W/m 16,1 km/h (3 Bft) 100,00 %
16.08.2021 01:12 18,8 C 17,8 C 16,1 C 84 % 1010,8 hPa 0,0 l/m 0 min 0 min 0 W/m 12,9 km/h (3 Bft) 97,87 %
16.08.2021 01:14 18,8 C 17,8 C 16,1 C 84 % 1010,7 hPa 0,0 l/m 0 min 0 min 0 W/m 6,4 km/h (2 Bft) 100,00 %
16.08.2021 01:16 18,8 C 17,8 C 16,1 C 84 % 1010,8 hPa 0,0 l/m 0 min 0 min 0 W/m 16,1 km/h (3 Bft) 100,00 %
16.08.2021 01:18 18,7 C 17,8 C 16,1 C 84 % 1010,7 hPa 0,0 l/m 0 min 0 min 0 W/m 6,4 km/h (2 Bft) 100,00 %
16.08.2021 01:20 18,7 C 17,8 C 16,1 C 83 % 1010,8 hPa 0,0 l/m 0 min 0 min 0 W/m 16,1 km/h (3 Bft) 100,00 %
16.08.2021 01:22 18,7 C 17,8 C 16,1 C 83 % 1010,7 hPa 0,0 l/m 0 min 0 min 0 W/m 16,1 km/h (3 Bft) 100,00 %
16.08.2021 01:24 18,6 C 17,8 C 16,1 C 83 % 1010,8 hPa 0,0 l/m 0 min 0 min 0 W/m 22,5 km/h (4 Bft) 100,00 %
16.08.2021 01:26 18,6 C 17,8 C 16,1 C 83 % 1010,7 hPa 0,0 l/m 0 min 0 min 0 W/m 9,7 km/h (2 Bft) 100,00 %
16.08.2021 01:28 18,6 C 17,8 C 16,1 C 83 % 1010,8 hPa 0,0 l/m 0 min 0 min 0 W/m 9,7 km/h (2 Bft) 100,00 %
16.08.2021 01:30 18,6 C 17,8 C 16,1 C 83 % 1010,9 hPa 0,0 l/m 0 min 0 min 0 W/m 16,1 km/h (3 Bft) 100,00 %
16.08.2021 01:32 18,6 C 17,8 C 16,1 C 83 % 1010,8 hPa 0,0 l/m 0 min 0 min 0 W/m 16,1 km/h (3 Bft) 100,00 %
16.08.2021 01:34 18,6 C 17,8 C 16,1 C 83 % 1010,8 hPa 0,0 l/m 0 min 0 min 0 W/m 16,1 km/h (3 Bft) 100,00 %
16.08.2021 01:36 18,7 C 17,8 C 16,1 C 83 % 1010,8 hPa 0,0 l/m 0 min 0 min 0 W/m 6,4 km/h (2 Bft) 97,87 %
16.08.2021 01:38 18,6 C 17,8 C 16,1 C 83 % 1010,9 hPa 0,0 l/m 0 min 0 min 0 W/m 6,4 km/h (2 Bft) 100,00 %
16.08.2021 01:40 18,6 C 17,8 C 16,1 C 83 % 1010,9 hPa 0,0 l/m 0 min 0 min 0 W/m 3,2 km/h (1 Bft) 100,00 %
16.08.2021 01:42 18,6 C 17,8 C 16,1 C 83 % 1010,8 hPa 0,0 l/m 0 min 0 min 0 W/m 12,9 km/h (3 Bft) 100,00 %
16.08.2021 01:44 18,6 C 17,8 C 15,6 C 83 % 1010,8 hPa 0,0 l/m 0 min 0 min 0 W/m 6,4 km/h (2 Bft) 100,00 %
16.08.2021 01:46 18,6 C 17,8 C 15,6 C 83 % 1010,7 hPa 0,0 l/m 0 min 0 min 0 W/m 9,7 km/h (2 Bft) 95,74 %
16.08.2021 01:48 18,5 C 17,8 C 15,6 C 83 % 1010,8 hPa 0,0 l/m 0 min 0 min 0 W/m 22,5 km/h (4 Bft) 100,00 %
16.08.2021 01:50 18,5 C 17,8 C 15,6 C 83 % 1010,8 hPa 0,0 l/m 0 min 0 min 0 W/m 9,7 km/h (2 Bft) 100,00 %
16.08.2021 01:52 18,5 C 17,8 C 15,6 C 82 % 1010,8 hPa 0,0 l/m 0 min 0 min 0 W/m 16,1 km/h (3 Bft) 100,00 %
16.08.2021 01:54 18,4 C 17,8 C 15,6 C 82 % 1010,8 hPa 0,0 l/m 0 min 0 min 0 W/m 16,1 km/h (3 Bft) 97,87 %
16.08.2021 01:56 18,4 C 17,8 C 15,6 C 82 % 1010,8 hPa 0,0 l/m 0 min 0 min 0 W/m 12,9 km/h (3 Bft) 97,87 %
16.08.2021 01:58 18,4 C 17,8 C 15,6 C 82 % 1010,8 hPa 0,0 l/m 0 min 0 min 0 W/m 12,9 km/h (3 Bft) 95,74 %
16.08.2021 02:00 18,4 C 17,8 C 15,6 C 81 % 1010,8 hPa 0,0 l/m 0 min 0 min 0 W/m 12,9 km/h (3 Bft) 95,74 %
16.08.2021 02:02 18,3 C 17,2 C 15,6 C 79 % 1010,9 hPa 0,0 l/m 0 min 0 min 0 W/m 22,5 km/h (4 Bft) 95,74 %
16.08.2021 02:04 18,3 C 17,2 C 15,6 C 79 % 1010,8 hPa 0,0 l/m 0 min 0 min 0 W/m 12,9 km/h (3 Bft) 95,65 %
16.08.2021 02:06 18,1 C 17,2 C 15,6 C 78 % 1010,9 hPa 0,0 l/m 0 min 0 min 0 W/m 16,1 km/h (3 Bft) 93,62 %
16.08.2021 02:08 18,1 C 17,2 C 15,6 C 78 % 1010,9 hPa 0,0 l/m 0 min 0 min 0 W/m 16,1 km/h (3 Bft) 95,74 %
16.08.2021 02:10 18,0 C 17,2 C 15,6 C 78 % 1010,9 hPa 0,0 l/m 0 min 0 min 0 W/m 16,1 km/h (3 Bft) 95,74 %
16.08.2021 02:12 17,9 C 16,7 C 15,0 C 78 % 1010,8 hPa 0,0 l/m 0 min 0 min 0 W/m 12,9 km/h (3 Bft) 95,74 %
16.08.2021 02:14 17,9 C 16,7 C 15,0 C 79 % 1010,8 hPa 0,0 l/m 0 min 0 min 0 W/m 9,7 km/h (2 Bft) 95,74 %
16.08.2021 02:16 17,8 C 16,7 C 15,0 C 78 % 1010,8 hPa 0,0 l/m 0 min 0 min 0 W/m 25,7 km/h (4 Bft) 93,48 %
16.08.2021 02:18 17,7 C 16,7 C 15,0 C 78 % 1010,8 hPa 0,0 l/m 0 min 0 min 0 W/m 19,3 km/h (3 Bft) 95,74 %
16.08.2021 02:20 17,6 C 16,7 C 15,0 C 78 % 1010,8 hPa 0,0 l/m 0 min 0 min 0 W/m 19,3 km/h (3 Bft) 93,62 %
16.08.2021 02:22 17,5 C 16,7 C 15,0 C 78 % 1010,9 hPa 0,0 l/m 0 min 0 min 0 W/m 19,3 km/h (3 Bft) 93,62 %
16.08.2021 02:24 17,4 C 16,7 C 15,0 C 78 % 1010,8 hPa 0,0 l/m 0 min 0 min 0 W/m 12,9 km/h (3 Bft) 95,74 %
16.08.2021 02:26 17,4 C 16,7 C 15,0 C 78 % 1010,8 hPa 0,0 l/m 0 min 0 min 0 W/m 16,1 km/h (3 Bft) 93,62 %
16.08.2021 02:28 17,3 C 16,1 C 14,5 C 78 % 1010,8 hPa 0,0 l/m 0 min 0 min 0 W/m 19,3 km/h (3 Bft) 95,65 %
16.08.2021 02:30 17,3 C 16,1 C 14,5 C 78 % 1010,8 hPa 0,0 l/m 0 min 0 min 0 W/m 12,9 km/h (3 Bft) 93,62 %
16.08.2021 02:32 17,2 C 16,1 C 14,5 C 78 % 1010,8 hPa 0,0 l/m 0 min 0 min 0 W/m 12,9 km/h (3 Bft) 93,75 %
16.08.2021 02:34 17,1 C 16,1 C 14,5 C 78 % 1010,7 hPa 0,0 l/m 0 min 0 min 0 W/m 25,7 km/h (4 Bft) 93,62 %
16.08.2021 02:36 17,1 C 16,1 C 14,5 C 78 % 1010,7 hPa 0,0 l/m 0 min 0 min 0 W/m 9,7 km/h (2 Bft) 93,62 %
16.08.2021 02:38 17,1 C 16,1 C 14,5 C 78 % 1010,7 hPa 0,0 l/m 0 min 0 min 0 W/m 12,9 km/h (3 Bft) 93,62 %
16.08.2021 02:40 17,0 C 16,1 C 14,5 C 78 % 1010,7 hPa 0,0 l/m 0 min 0 min 0 W/m 16,1 km/h (3 Bft) 91,30 %
16.08.2021 02:42 17,0 C 16,1 C 14,5 C 79 % 1010,7 hPa 0,0 l/m 0 min 0 min 0 W/m 6,4 km/h (2 Bft) 91,49 %
16.08.2021 02:44 17,0 C 16,1 C 14,5 C 79 % 1010,6 hPa 0,0 l/m 0 min 0 min 0 W/m 12,9 km/h (3 Bft) 93,62 %
16.08.2021 02:46 17,0 C 16,1 C 14,5 C 79 % 1010,7 hPa 0,0 l/m 0 min 0 min 0 W/m 12,9 km/h (3 Bft) 93,62 %
16.08.2021 02:48 16,9 C 16,1 C 14,5 C 79 % 1010,7 hPa 0,0 l/m 0 min 0 min 0 W/m 6,4 km/h (2 Bft) 97,87 %
16.08.2021 02:50 16,9 C 16,1 C 14,5 C 79 % 1010,7 hPa 0,0 l/m 0 min 0 min 0 W/m 12,9 km/h (3 Bft) 97,87 %
16.08.2021 02:52 16,8 C 16,1 C 14,5 C 79 % 1010,7 hPa 0,0 l/m 0 min 0 min 0 W/m 16,1 km/h (3 Bft) 97,83 %
16.08.2021 02:54 16,8 C 16,1 C 14,5 C 79 % 1010,7 hPa 0,0 l/m 0 min 0 min 0 W/m 12,9 km/h (3 Bft) 97,87 %
16.08.2021 02:56 16,8 C 16,1 C 14,5 C 79 % 1010,6 hPa 0,0 l/m 0 min 0 min 0 W/m 16,1 km/h (3 Bft) 95,74 %
16.08.2021 02:58 16,8 C 16,1 C 14,5 C 79 % 1010,7 hPa 0,0 l/m 0 min 0 min 0 W/m 9,7 km/h (2 Bft) 97,87 %
16.08.2021 03:00 16,7 C 16,1 C 14,5 C 80 % 1010,7 hPa 0,0 l/m 0 min 0 min 0 W/m 25,7 km/h (4 Bft) 100,00 %
16.08.2021 03:02 16,6 C 16,1 C 14,5 C 80 % 1010,7 hPa 0,0 l/m 0 min 0 min 0 W/m 22,5 km/h (4 Bft) 100,00 %
16.08.2021 03:04 16,6 C 15,6 C 13,9 C 80 % 1010,7 hPa 0,0 l/m 0 min 0 min 0 W/m 6,4 km/h (2 Bft) 97,87 %
16.08.2021 03:06 16,6 C 15,6 C 13,9 C 80 % 1010,7 hPa 0,0 l/m 0 min 0 min 0 W/m 12,9 km/h (3 Bft) 100,00 %
16.08.2021 03:08 16,6 C 15,6 C 13,9 C 80 % 1010,8 hPa 0,0 l/m 0 min 0 min 0 W/m 12,9 km/h (3 Bft) 100,00 %
16.08.2021 03:10 16,6 C 15,6 C 13,9 C 80 % 1010,8 hPa 0,0 l/m 0 min 0 min 0 W/m 6,4 km/h (2 Bft) 100,00 %
16.08.2021 03:12 16,6 C 15,6 C 13,9 C 80 % 1010,8 hPa 0,0 l/m 0 min 0 min 0 W/m 6,4 km/h (2 Bft) 100,00 %
16.08.2021 03:14 16,6 C 15,6 C 13,9 C 80 % 1010,7 hPa 0,0 l/m 0 min 0 min 0 W/m 9,7 km/h (2 Bft) 100,00 %
16.08.2021 03:16 16,5 C 16,1 C 14,5 C 80 % 1010,8 hPa 0,0 l/m 0 min 0 min 0 W/m 12,9 km/h (3 Bft) 97,87 %
16.08.2021 03:18 16,5 C 16,1 C 14,5 C 80 % 1010,7 hPa 0,0 l/m 0 min 0 min 0 W/m 12,9 km/h (3 Bft) 100,00 %
16.08.2021 03:20 16,5 C 16,1 C 14,5 C 80 % 1010,7 hPa 0,0 l/m 0 min 0 min 0 W/m 6,4 km/h (2 Bft) 100,00 %
16.08.2021 03:22 16,5 C 16,1 C 13,9 C 80 % 1010,7 hPa 0,0 l/m 0 min 0 min 0 W/m 6,4 km/h (2 Bft) 97,87 %
16.08.2021 03:24 16,5 C 15,6 C 13,9 C 80 % 1010,8 hPa 0,0 l/m 0 min 0 min 0 W/m 6,4 km/h (2 Bft) 100,00 %
16.08.2021 03:26 16,5 C 15,6 C 13,9 C 80 % 1010,7 hPa 0,0 l/m 0 min 0 min 0 W/m 6,4 km/h (2 Bft) 95,74 %
16.08.2021 03:28 16,5 C 15,6 C 13,9 C 81 % 1010,7 hPa 0,0 l/m 0 min 0 min 0 W/m 12,9 km/h (3 Bft) 100,00 %
16.08.2021 03:30 16,5 C 15,6 C 13,9 C 81 % 1010,7 hPa 0,0 l/m 0 min 0 min 0 W/m 16,1 km/h (3 Bft) 100,00 %
16.08.2021 03:32 16,5 C 15,6 C 13,9 C 81 % 1010,7 hPa 0,0 l/m 0 min 0 min 0 W/m 16,1 km/h (3 Bft) 100,00 %
16.08.2021 03:34 16,5 C 15,6 C 13,9 C 81 % 1010,8 hPa 0,0 l/m 0 min 0 min 0 W/m 6,4 km/h (2 Bft) 100,00 %
16.08.2021 03:36 16,5 C 15,6 C 13,9 C 81 % 1010,8 hPa 0,0 l/m 0 min 0 min 0 W/m 6,4 km/h (2 Bft) 100,00 %
16.08.2021 03:38 16,5 C 15,6 C 13,9 C 81 % 1010,8 hPa 0,0 l/m 0 min 0 min 0 W/m 12,9 km/h (3 Bft) 100,00 %
16.08.2021 03:40 16,5 C 15,6 C 13,9 C 81 % 1010,8 hPa 0,0 l/m 0 min 0 min 0 W/m 12,9 km/h (3 Bft) 100,00 %
16.08.2021 03:42 16,5 C 15,6 C 13,9 C 81 % 1010,7 hPa 0,0 l/m 0 min 0 min 0 W/m 6,4 km/h (2 Bft) 100,00 %
16.08.2021 03:44 16,5 C 15,6 C 13,9 C 81 % 1010,8 hPa 0,0 l/m 0 min 0 min 0 W/m 9,7 km/h (2 Bft) 100,00 %
16.08.2021 03:46 16,5 C 15,6 C 13,9 C 81 % 1010,7 hPa 0,0 l/m 0 min 0 min 0 W/m 3,2 km/h (1 Bft) 100,00 %
16.08.2021 03:48 16,5 C 16,1 C 13,9 C 81 % 1010,7 hPa 0,0 l/m 0 min 0 min 0 W/m 16,1 km/h (3 Bft) 97,87 %
16.08.2021 03:50 16,5 C 15,6 C 13,9 C 81 % 1010,7 hPa 0,0 l/m 0 min 0 min 0 W/m 12,9 km/h (3 Bft) 100,00 %
16.08.2021 03:52 16,5 C 16,1 C 13,9 C 81 % 1010,7 hPa 0,0 l/m 0 min 0 min 0 W/m 16,1 km/h (3 Bft) 100,00 %
16.08.2021 03:54 16,5 C 15,6 C 13,9 C 81 % 1010,7 hPa 0,0 l/m 0 min 0 min 0 W/m 19,3 km/h (3 Bft) 100,00 %
16.08.2021 03:56 16,5 C 15,6 C 13,9 C 81 % 1010,6 hPa 0,0 l/m 0 min 0 min 0 W/m 16,1 km/h (3 Bft) 100,00 %
16.08.2021 03:58 16,5 C 15,6 C 13,9 C 82 % 1010,6 hPa 0,0 l/m 0 min 0 min 0 W/m 9,7 km/h (2 Bft) 100,00 %
16.08.2021 04:00 16,5 C 15,6 C 13,9 C 82 % 1010,6 hPa 0,0 l/m 0 min 0 min 0 W/m 12,9 km/h (3 Bft) 100,00 %
16.08.2021 04:02 16,4 C 15,6 C 13,9 C 82 % 1010,6 hPa 0,0 l/m 0 min 0 min 0 W/m 16,1 km/h (3 Bft) 100,00 %
16.08.2021 04:04 16,4 C 15,6 C 13,9 C 82 % 1010,6 hPa 0,0 l/m 0 min 0 min 0 W/m 12,9 km/h (3 Bft) 100,00 %
16.08.2021 04:06 16,4 C 15,6 C 13,9 C 82 % 1010,6 hPa 0,0 l/m 0 min 0 min 0 W/m 16,1 km/h (3 Bft) 97,87 %
16.08.2021 04:08 16,3 C 15,6 C 13,9 C 82 % 1010,7 hPa 0,0 l/m 0 min 0 min 0 W/m 9,7 km/h (2 Bft) 100,00 %
16.08.2021 04:10 16,3 C 15,6 C 13,9 C 82 % 1010,6 hPa 0,0 l/m 0 min 0 min 0 W/m 12,9 km/h (3 Bft) 100,00 %
16.08.2021 04:12 16,3 C 15,6 C 13,9 C 82 % 1010,6 hPa 0,0 l/m 0 min 0 min 0 W/m 12,9 km/h (3 Bft) 100,00 %
16.08.2021 04:14 16,3 C 15,6 C 13,9 C 82 % 1010,6 hPa 0,0 l/m 0 min 0 min 0 W/m 12,9 km/h (3 Bft) 100,00 %
16.08.2021 04:16 16,3 C 15,6 C 13,9 C 82 % 1010,6 hPa 0,0 l/m 0 min 0 min 0 W/m 16,1 km/h (3 Bft) 100,00 %
16.08.2021 04:18 16,2 C 15,6 C 13,9 C 82 % 1010,5 hPa 0,0 l/m 0 min 0 min 0 W/m 6,4 km/h (2 Bft) 100,00 %
16.08.2021 04:20 16,2 C 15,6 C 13,9 C 82 % 1010,5 hPa 0,0 l/m 0 min 0 min 0 W/m 6,4 km/h (2 Bft) 97,87 %
16.08.2021 04:22 16,2 C 15,6 C 13,9 C 83 % 1010,5 hPa 0,0 l/m 0 min 0 min 0 W/m 6,4 km/h (2 Bft) 97,83 %
16.08.2021 04:24 16,1 C 15,6 C 13,9 C 83 % 1010,6 hPa 0,0 l/m 0 min 0 min 0 W/m 12,9 km/h (3 Bft) 97,87 %
16.08.2021 04:26 16,1 C 15,6 C 13,9 C 83 % 1010,7 hPa 0,0 l/m 0 min 0 min 0 W/m 6,4 km/h (2 Bft) 95,74 %
16.08.2021 04:28 16,1 C 15,6 C 13,9 C 83 % 1010,6 hPa 0,0 l/m 0 min 0 min 0 W/m 9,7 km/h (2 Bft) 97,87 %
16.08.2021 04:30 16,1 C 15,6 C 13,9 C 83 % 1010,5 hPa 0,0 l/m 0 min 0 min 0 W/m 12,9 km/h (3 Bft) 97,87 %
16.08.2021 04:32 16,1 C 15,6 C 13,9 C 83 % 1010,5 hPa 0,0 l/m 0 min 0 min 0 W/m 12,9 km/h (3 Bft) 94,29 %
16.08.2021 04:34 16,1 C 15,6 C 13,9 C 83 % 1010,5 hPa 0,0 l/m 0 min 0 min 0 W/m 6,4 km/h (2 Bft) 97,87 %
16.08.2021 04:36 16,1 C 15,6 C 13,9 C 83 % 1010,5 hPa 0,0 l/m 0 min 0 min 0 W/m 12,9 km/h (3 Bft) 93,62 %
16.08.2021 04:38 16,0 C 15,6 C 13,9 C 83 % 1010,5 hPa 0,0 l/m 0 min 0 min 0 W/m 12,9 km/h (3 Bft) 98,28 %
16.08.2021 04:40 16,0 C 15,6 C 13,9 C 83 % 1010,5 hPa 0,0 l/m 0 min 0 min 0 W/m 12,9 km/h (3 Bft) 94,29 %
16.08.2021 04:42 16,0 C 15,6 C 13,9 C 83 % 1010,5 hPa 0,0 l/m 0 min 0 min 0 W/m 9,7 km/h (2 Bft) 95,74 %
16.08.2021 04:44 16,0 C 15,6 C 13,9 C 83 % 1010,5 hPa 0,0 l/m 0 min 0 min 0 W/m 16,1 km/h (3 Bft) 97,87 %
16.08.2021 04:46 16,0 C 15,6 C 13,9 C 83 % 1010,5 hPa 0,0 l/m 0 min 0 min 0 W/m 12,9 km/h (3 Bft) 95,74 %
16.08.2021 04:48 16,0 C 15,6 C 13,9 C 83 % 1010,5 hPa 0,0 l/m 0 min 0 min 0 W/m 16,1 km/h (3 Bft) 95,74 %
16.08.2021 04:50 16,0 C 15,6 C 13,9 C 83 % 1010,5 hPa 0,0 l/m 0 min 0 min 0 W/m 16,1 km/h (3 Bft) 95,65 %
16.08.2021 04:52 16,0 C 15,6 C 13,9 C 83 % 1010,5 hPa 0,0 l/m 0 min 0 min 0 W/m 16,1 km/h (3 Bft) 95,74 %
16.08.2021 04:54 16,0 C 15,6 C 13,9 C 83 % 1010,5 hPa 0,0 l/m 0 min 0 min 0 W/m 6,4 km/h (2 Bft) 97,87 %
16.08.2021 04:56 16,0 C 15,6 C 13,9 C 83 % 1010,5 hPa 0,0 l/m 0 min 0 min 0 W/m 12,9 km/h (3 Bft) 97,87 %
16.08.2021 04:58 16,0 C 15,6 C 13,9 C 83 % 1010,5 hPa 0,0 l/m 0 min 0 min 0 W/m 6,4 km/h (2 Bft) 95,74 %
16.08.2021 05:00 16,0 C 15,6 C 13,9 C 83 % 1010,5 hPa 0,0 l/m 0 min 0 min 0 W/m 22,5 km/h (4 Bft) 97,87 %
16.08.2021 05:02 16,0 C 15,0 C 13,4 C 83 % 1010,5 hPa 0,0 l/m 0 min 0 min 0 W/m 12,9 km/h (3 Bft) 94,44 %
16.08.2021 05:04 16,0 C 15,6 C 13,9 C 84 % 1010,5 hPa 0,0 l/m 0 min 0 min 0 W/m 12,9 km/h (3 Bft) 96,00 %
16.08.2021 05:06 16,0 C 15,6 C 13,9 C 84 % 1010,4 hPa 0,0 l/m 0 min 0 min 0 W/m 16,1 km/h (3 Bft) 95,74 %
16.08.2021 05:08 16,0 C 15,6 C 13,9 C 84 % 1010,3 hPa 0,0 l/m 0 min 0 min 0 W/m 12,9 km/h (3 Bft) 91,49 %
16.08.2021 05:10 16,0 C 15,6 C 13,9 C 84 % 1010,3 hPa 0,0 l/m 0 min 0 min 0 W/m 12,9 km/h (3 Bft) 95,74 %
16.08.2021 05:12 16,0 C 15,6 C 13,9 C 84 % 1010,3 hPa 0,0 l/m 0 min 0 min 0 W/m 6,4 km/h (2 Bft) 95,65 %
16.08.2021 05:14 16,0 C 15,6 C 13,9 C 84 % 1010,3 hPa 0,0 l/m 0 min 0 min 0 W/m 16,1 km/h (3 Bft) 93,62 %
16.08.2021 05:16 16,0 C 15,6 C 13,9 C 84 % 1010,2 hPa 0,0 l/m 0 min 0 min 0 W/m 12,9 km/h (3 Bft) 93,62 %
16.08.2021 05:18 16,0 C 15,6 C 13,9 C 84 % 1010,2 hPa 0,0 l/m 0 min 0 min 0 W/m 19,3 km/h (3 Bft) 95,74 %
16.08.2021 05:20 16,0 C 15,6 C 13,9 C 84 % 1010,2 hPa 0,0 l/m 0 min 0 min 0 W/m 16,1 km/h (3 Bft) 95,74 %
16.08.2021 05:22 16,0 C 15,6 C 13,9 C 84 % 1010,2 hPa 0,0 l/m 0 min 0 min 0 W/m 19,3 km/h (3 Bft) 93,62 %
16.08.2021 05:24 16,0 C 15,6 C 13,9 C 84 % 1010,2 hPa 0,0 l/m 0 min 0 min 0 W/m 12,9 km/h (3 Bft) 95,65 %
16.08.2021 05:26 16,0 C 15,6 C 13,9 C 84 % 1010,2 hPa 0,0 l/m 0 min 0 min 0 W/m 16,1 km/h (3 Bft) 95,74 %
16.08.2021 05:28 16,0 C 15,6 C 13,9 C 84 % 1010,2 hPa 0,0 l/m 0 min 0 min 0 W/m 12,9 km/h (3 Bft) 95,74 %
16.08.2021 05:30 16,0 C 15,6 C 13,9 C 84 % 1010,2 hPa 0,0 l/m 0 min 0 min 0 W/m 12,9 km/h (3 Bft) 97,87 %
16.08.2021 05:32 16,0 C 15,6 C 13,9 C 84 % 1010,2 hPa 0,0 l/m 0 min 0 min 0 W/m 25,7 km/h (4 Bft) 95,74 %
16.08.2021 05:34 16,0 C 15,6 C 13,9 C 84 % 1010,2 hPa 0,0 l/m 0 min 0 min 0 W/m 6,4 km/h (2 Bft) 95,74 %
16.08.2021 05:36 16,0 C 15,6 C 13,9 C 84 % 1010,2 hPa 0,0 l/m 0 min 0 min 0 W/m 6,4 km/h (2 Bft) 97,83 %
16.08.2021 05:38 16,0 C 15,6 C 13,9 C 84 % 1010,2 hPa 0,0 l/m 0 min 0 min 0 W/m 12,9 km/h (3 Bft) 97,87 %
16.08.2021 05:40 16,0 C 15,6 C 13,9 C 84 % 1010,3 hPa 0,0 l/m 0 min 0 min 0 W/m 16,1 km/h (3 Bft) 97,87 %
16.08.2021 05:42 16,0 C 15,6 C 13,9 C 84 % 1010,2 hPa 0,0 l/m 0 min 0 min 0 W/m 9,7 km/h (2 Bft) 95,74 %
16.08.2021 05:44 16,0 C 15,6 C 13,9 C 84 % 1010,2 hPa 0,0 l/m 0 min 0 min 0 W/m 19,3 km/h (3 Bft) 95,74 %
16.08.2021 05:46 16,0 C 15,6 C 13,9 C 84 % 1010,3 hPa 0,0 l/m 0 min 0 min 0 W/m 16,1 km/h (3 Bft) 95,74 %
16.08.2021 05:48 16,0 C 15,6 C 13,9 C 84 % 1010,3 hPa 0,0 l/m 0 min 0 min 0 W/m 19,3 km/h (3 Bft) 100,00 %
16.08.2021 05:50 16,0 C 15,6 C 13,9 C 85 % 1010,3 hPa 0,0 l/m 0 min 0 min 0 W/m 12,9 km/h (3 Bft) 100,00 %
16.08.2021 05:52 16,0 C 15,6 C 13,9 C 85 % 1010,3 hPa 0,0 l/m 0 min 0 min 0 W/m 12,9 km/h (3 Bft) 100,00 %
16.08.2021 05:54 16,0 C 15,6 C 13,9 C 85 % 1010,3 hPa 0,0 l/m 0 min 0 min 0 W/m 16,1 km/h (3 Bft) 97,87 %
16.08.2021 05:56 16,0 C 15,6 C 13,9 C 85 % 1010,2 hPa 0,0 l/m 0 min 0 min 0 W/m 12,9 km/h (3 Bft) 100,00 %
16.08.2021 05:58 16,0 C 15,6 C 13,9 C 85 % 1010,2 hPa 0,0 l/m 0 min 0 min 0 W/m 16,1 km/h (3 Bft) 100,00 %
16.08.2021 06:00 16,0 C 15,6 C 13,9 C 85 % 1010,2 hPa 0,0 l/m 0 min 0 min 0 W/m 12,9 km/h (3 Bft) 97,83 %
16.08.2021 06:02 16,0 C 15,6 C 13,9 C 85 % 1010,2 hPa 0,0 l/m 0 min 0 min 0 W/m 16,1 km/h (3 Bft) 100,00 %
16.08.2021 06:04 16,0 C 15,6 C 13,9 C 85 % 1010,2 hPa 0,0 l/m 0 min 0 min 0 W/m 9,7 km/h (2 Bft) 95,74 %
16.08.2021 06:08 16,0 C 15,6 C 13,9 C 85 % 1010,2 hPa 0,0 l/m 0 min 0 min 0 W/m 9,7 km/h (2 Bft) 100,00 %
16.08.2021 06:10 16,0 C 15,6 C 13,9 C 85 % 1010,2 hPa 0,0 l/m 0 min 0 min 0 W/m 22,5 km/h (4 Bft) 100,00 %
16.08.2021 06:12 16,0 C 15,6 C 13,9 C 85 % 1010,2 hPa 0,0 l/m 0 min 0 min 0 W/m 16,1 km/h (3 Bft) 100,00 %
16.08.2021 06:14 16,0 C 15,6 C 13,9 C 85 % 1010,3 hPa 0,0 l/m 0 min 0 min 0 W/m 9,7 km/h (2 Bft) 97,87 %
16.08.2021 06:16 16,0 C 15,6 C 13,9 C 85 % 1010,3 hPa 0,0 l/m 0 min 0 min 0 W/m 9,7 km/h (2 Bft) 95,74 %
16.08.2021 06:18 16,0 C 15,6 C 13,9 C 85 % 1010,2 hPa 0,0 l/m 0 min 0 min 0 W/m 16,1 km/h (3 Bft) 97,87 %
16.08.2021 06:20 16,0 C 15,6 C 13,9 C 85 % 1010,3 hPa 0,0 l/m 0 min 0 min 0 W/m 19,3 km/h (3 Bft) 97,83 %
16.08.2021 06:22 16,0 C 15,6 C 13,9 C 85 % 1010,3 hPa 0,0 l/m 0 min 0 min 0 W/m 22,5 km/h (4 Bft) 95,74 %
16.08.2021 06:24 16,0 C 15,6 C 13,9 C 85 % 1010,3 hPa 0,0 l/m 0 min 0 min 0 W/m 12,9 km/h (3 Bft) 97,87 %
16.08.2021 06:26 16,0 C 15,6 C 13,9 C 85 % 1010,3 hPa 0,0 l/m 0 min 0 min 0 W/m 16,1 km/h (3 Bft) 97,87 %
16.08.2021 06:28 16,0 C 15,6 C 13,9 C 85 % 1010,3 hPa 0,0 l/m 0 min 0 min 0 W/m 12,9 km/h (3 Bft) 97,87 %
16.08.2021 06:30 16,0 C 15,6 C 13,9 C 85 % 1010,4 hPa 0,0 l/m 0 min 0 min 0 W/m 16,1 km/h (3 Bft) 97,87 %
16.08.2021 06:32 16,0 C 15,6 C 13,9 C 86 % 1010,3 hPa 0,0 l/m 0 min 0 min 0 W/m 12,9 km/h (3 Bft) 97,83 %
16.08.2021 06:34 16,1 C 15,6 C 13,9 C 85 % 1010,2 hPa 0,0 l/m 0 min 0 min 0 W/m 16,1 km/h (3 Bft) 97,87 %
16.08.2021 06:36 16,1 C 15,6 C 13,9 C 85 % 1010,3 hPa 0,0 l/m 0 min 0 min 0 W/m 12,9 km/h (3 Bft) 97,87 %
16.08.2021 06:38 16,1 C 15,6 C 13,9 C 85 % 1010,3 hPa 0,0 l/m 0 min 0 min 0 W/m 16,1 km/h (3 Bft) 95,74 %
16.08.2021 06:40 16,1 C 15,6 C 13,9 C 86 % 1010,3 hPa 0,0 l/m 0 min 0 min 1 W/m 16,1 km/h (3 Bft) 97,87 %
16.08.2021 06:42 16,1 C 15,6 C 13,9 C 86 % 1010,4 hPa 0,0 l/m 0 min 0 min 5 W/m 29,0 km/h (5 Bft) 97,87 %
16.08.2021 06:44 16,1 C 15,6 C 13,9 C 86 % 1010,4 hPa 0,0 l/m 0 min 0 min 5 W/m 6,4 km/h (2 Bft) 95,65 %
16.08.2021 06:46 16,1 C 15,6 C 13,9 C 86 % 1010,5 hPa 0,0 l/m 0 min 0 min 5 W/m 19,3 km/h (3 Bft) 100,00 %
16.08.2021 06:48 16,1 C 15,6 C 13,9 C 86 % 1010,4 hPa 0,0 l/m 0 min 0 min 7 W/m 16,1 km/h (3 Bft) 100,00 %
16.08.2021 06:50 16,1 C 15,6 C 13,9 C 86 % 1010,3 hPa 0,0 l/m 0 min 0 min 8 W/m 19,3 km/h (3 Bft) 74,47 %
16.08.2021 06:52 16,1 C 15,6 C 13,9 C 86 % 1010,4 hPa 0,0 l/m 0 min 0 min 9 W/m 19,3 km/h (3 Bft) 72,73 %
16.08.2021 06:54 16,1 C 15,6 C 13,9 C 86 % 1010,3 hPa 0,0 l/m 0 min 0 min 11 W/m 6,4 km/h (2 Bft) 100,00 %
16.08.2021 06:56 16,1 C 15,6 C 13,9 C 86 % 1010,4 hPa 0,0 l/m 0 min 0 min 11 W/m 16,1 km/h (3 Bft) 100,00 %
16.08.2021 06:58 16,1 C 15,6 C 13,9 C 86 % 1010,4 hPa 0,0 l/m 0 min 0 min 11 W/m 16,1 km/h (3 Bft) 100,00 %
16.08.2021 07:00 16,1 C 15,6 C 13,9 C 86 % 1010,5 hPa 0,0 l/m 0 min 0 min 11 W/m 16,1 km/h (3 Bft) 100,00 %
16.08.2021 07:02 16,1 C 15,6 C 13,9 C 86 % 1010,5 hPa 0,0 l/m 0 min 0 min 12 W/m 16,1 km/h (3 Bft) 100,00 %
16.08.2021 07:04 16,1 C 15,6 C 13,9 C 86 % 1010,5 hPa 0,0 l/m 0 min 0 min 12 W/m 6,4 km/h (2 Bft) 97,87 %
16.08.2021 07:06 16,1 C 15,6 C 13,9 C 86 % 1010,4 hPa 0,0 l/m 0 min 0 min 12 W/m 16,1 km/h (3 Bft) 100,00 %
16.08.2021 07:08 16,1 C 15,6 C 13,9 C 86 % 1010,5 hPa 0,0 l/m 0 min 0 min 12 W/m 12,9 km/h (3 Bft) 100,00 %
16.08.2021 07:10 16,1 C 15,6 C 13,9 C 86 % 1010,4 hPa 0,0 l/m 0 min 0 min 14 W/m 22,5 km/h (4 Bft) 100,00 %
16.08.2021 07:12 16,1 C 15,6 C 13,9 C 86 % 1010,5 hPa 0,0 l/m 0 min 0 min 16 W/m 25,7 km/h (4 Bft) 100,00 %
16.08.2021 07:14 16,1 C 15,6 C 13,9 C 86 % 1010,5 hPa 0,0 l/m 0 min 0 min 14 W/m 12,9 km/h (3 Bft) 100,00 %
16.08.2021 07:16 16,1 C 15,6 C 13,9 C 86 % 1010,5 hPa 0,0 l/m 0 min 0 min 12 W/m 12,9 km/h (3 Bft) 100,00 %
16.08.2021 07:18 16,1 C 15,6 C 13,9 C 86 % 1010,5 hPa 0,0 l/m 0 min 0 min 12 W/m 12,9 km/h (3 Bft) 95,74 %
16.08.2021 07:20 16,2 C 15,6 C 13,9 C 86 % 1010,5 hPa 0,0 l/m 0 min 0 min 13 W/m 16,1 km/h (3 Bft) 97,87 %
16.08.2021 07:22 16,2 C 15,6 C 13,9 C 86 % 1010,6 hPa 0,0 l/m 0 min 0 min 12 W/m 22,5 km/h (4 Bft) 100,00 %
16.08.2021 07:24 16,2 C 15,6 C 13,9 C 86 % 1010,5 hPa 0,0 l/m 0 min 0 min 12 W/m 32,2 km/h (5 Bft) 100,00 %
16.08.2021 07:26 16,2 C 15,6 C 13,9 C 86 % 1010,5 hPa 0,0 l/m 0 min 0 min 13 W/m 19,3 km/h (3 Bft) 97,87 %
16.08.2021 07:28 16,2 C 15,6 C 13,9 C 86 % 1010,5 hPa 0,0 l/m 0 min 0 min 15 W/m 16,1 km/h (3 Bft) 97,87 %
16.08.2021 07:30 16,1 C 15,6 C 13,9 C 86 % 1010,5 hPa 0,0 l/m 0 min 0 min 19 W/m 9,7 km/h (2 Bft) 97,87 %
16.08.2021 07:32 16,2 C 15,6 C 13,9 C 86 % 1010,4 hPa 0,0 l/m 0 min 0 min 25 W/m 6,4 km/h (2 Bft) 95,74 %
16.08.2021 07:34 16,2 C 15,6 C 13,9 C 87 % 1010,5 hPa 0,0 l/m 0 min 0 min 24 W/m 16,1 km/h (3 Bft) 97,87 %
16.08.2021 07:36 16,2 C 15,6 C 13,9 C 87 % 1010,4 hPa 0,0 l/m 0 min 0 min 20 W/m 12,9 km/h (3 Bft) 97,83 %
16.08.2021 07:38 16,2 C 15,6 C 13,9 C 87 % 1010,4 hPa 0,0 l/m 0 min 0 min 21 W/m 12,9 km/h (3 Bft) 97,87 %
16.08.2021 07:40 16,2 C 15,6 C 13,9 C 87 % 1010,5 hPa 0,0 l/m 0 min 0 min 22 W/m 19,3 km/h (3 Bft) 97,87 %
16.08.2021 07:42 16,2 C 15,6 C 13,9 C 87 % 1010,4 hPa 0,0 l/m 0 min 0 min 26 W/m 19,3 km/h (3 Bft) 97,87 %
16.08.2021 07:44 16,2 C 15,6 C 13,9 C 87 % 1010,5 hPa 0,0 l/m 0 min 0 min 25 W/m 16,1 km/h (3 Bft) 97,87 %
16.08.2021 07:46 16,2 C 15,6 C 13,9 C 87 % 1010,5 hPa 0,0 l/m 0 min 0 min 24 W/m 19,3 km/h (3 Bft) 97,83 %
16.08.2021 07:48 16,2 C 15,6 C 13,9 C 87 % 1010,5 hPa 0,0 l/m 0 min 0 min 25 W/m 22,5 km/h (4 Bft) 97,87 %
16.08.2021 07:50 16,2 C 15,6 C 13,9 C 87 % 1010,6 hPa 0,0 l/m 0 min 0 min 23 W/m 25,7 km/h (4 Bft) 95,74 %
16.08.2021 07:52 16,2 C 15,6 C 13,9 C 87 % 1010,6 hPa 0,0 l/m 0 min 0 min 23 W/m 16,1 km/h (3 Bft) 95,74 %
16.08.2021 07:54 16,3 C 15,6 C 13,9 C 87 % 1010,6 hPa 0,0 l/m 0 min 0 min 25 W/m 6,4 km/h (2 Bft) 93,62 %
16.08.2021 07:56 16,3 C 15,6 C 14,5 C 87 % 1010,6 hPa 0,0 l/m 0 min 0 min 28 W/m 12,9 km/h (3 Bft) 95,74 %
16.08.2021 07:58 16,3 C 15,6 C 14,5 C 87 % 1010,6 hPa 0,0 l/m 0 min 0 min 30 W/m 19,3 km/h (3 Bft) 95,65 %
16.08.2021 08:00 16,3 C 15,6 C 14,5 C 87 % 1010,5 hPa 0,0 l/m 0 min 0 min 39 W/m 12,9 km/h (3 Bft) 93,62 %
16.08.2021 08:02 16,3 C 15,6 C 14,5 C 87 % 1010,6 hPa 0,0 l/m 0 min 0 min 50 W/m 22,5 km/h (4 Bft) 93,62 %
16.08.2021 08:04 16,3 C 15,6 C 14,5 C 86 % 1010,6 hPa 0,0 l/m 0 min 0 min 51 W/m 22,5 km/h (4 Bft) 93,62 %
16.08.2021 08:06 16,4 C 15,6 C 14,5 C 86 % 1010,6 hPa 0,0 l/m 0 min 0 min 41 W/m 19,3 km/h (3 Bft) 95,74 %
16.08.2021 08:08 16,4 C 16,1 C 14,5 C 86 % 1010,5 hPa 0,0 l/m 0 min 0 min 32 W/m 12,9 km/h (3 Bft) 91,49 %
16.08.2021 08:10 16,4 C 16,1 C 14,5 C 87 % 1010,6 hPa 0,0 l/m 0 min 0 min 29 W/m 16,1 km/h (3 Bft) 93,48 %
16.08.2021 08:12 16,4 C 16,1 C 14,5 C 87 % 1010,6 hPa 0,0 l/m 0 min 0 min 49 W/m 12,9 km/h (3 Bft) 93,62 %
16.08.2021 08:14 16,4 C 16,1 C 14,5 C 87 % 1010,6 hPa 0,0 l/m 0 min 0 min 70 W/m 12,9 km/h (3 Bft) 91,49 %
16.08.2021 08:16 16,5 C 16,1 C 14,5 C 87 % 1010,5 hPa 0,0 l/m 0 min 0 min 95 W/m 12,9 km/h (3 Bft) 93,62 %
16.08.2021 08:18 16,5 C 16,1 C 14,5 C 87 % 1010,5 hPa 0,0 l/m 0 min 0 min 102 W/m 22,5 km/h (4 Bft) 93,62 %
16.08.2021 08:20 16,5 C 16,1 C 14,5 C 86 % 1010,5 hPa 0,0 l/m 0 min 0 min 82 W/m 16,1 km/h (3 Bft) 95,74 %
16.08.2021 08:22 16,5 C 16,1 C 14,5 C 86 % 1010,5 hPa 0,0 l/m 0 min 0 min 72 W/m 19,3 km/h (3 Bft) 91,30 %
16.08.2021 08:24 16,6 C 16,1 C 14,5 C 86 % 1010,5 hPa 0,0 l/m 0 min 0 min 95 W/m 16,1 km/h (3 Bft) 89,36 %
16.08.2021 08:26 16,6 C 16,1 C 14,5 C 86 % 1010,5 hPa 0,0 l/m 0 min 0 min 97 W/m 22,5 km/h (4 Bft) 93,62 %
16.08.2021 08:28 16,6 C 16,7 C 15,0 C 86 % 1010,4 hPa 0,0 l/m 0 min 0 min 105 W/m 12,9 km/h (3 Bft) 95,74 %
16.08.2021 08:30 16,7 C 16,7 C 15,0 C 86 % 1010,5 hPa 0,0 l/m 0 min 0 min 99 W/m 19,3 km/h (3 Bft) 85,11 %
16.08.2021 08:32 16,7 C 16,7 C 15,0 C 86 % 1010,5 hPa 0,0 l/m 0 min 0 min 102 W/m 22,5 km/h (4 Bft) 95,74 %
16.08.2021 08:34 16,8 C 16,7 C 15,0 C 86 % 1010,4 hPa 0,0 l/m 0 min 0 min 114 W/m 12,9 km/h (3 Bft) 95,65 %
16.08.2021 08:36 16,8 C 16,7 C 15,0 C 86 % 1010,3 hPa 0,0 l/m 0 min 0 min 109 W/m 9,7 km/h (2 Bft) 93,62 %
16.08.2021 08:38 16,8 C 16,7 C 15,0 C 86 % 1010,3 hPa 0,0 l/m 0 min 0 min 132 W/m 16,1 km/h (3 Bft) 97,87 %
16.08.2021 08:40 16,9 C 16,7 C 15,0 C 86 % 1010,4 hPa 0,0 l/m 0 min 0 min 140 W/m 25,7 km/h (4 Bft) 100,00 %
16.08.2021 08:42 16,9 C 16,7 C 15,0 C 86 % 1010,3 hPa 0,0 l/m 0 min 0 min 115 W/m 19,3 km/h (3 Bft) 97,87 %
16.08.2021 08:44 16,9 C 16,7 C 15,0 C 86 % 1010,2 hPa 0,0 l/m 0 min 0 min 168 W/m 25,7 km/h (4 Bft) 97,87 %
16.08.2021 08:46 17,0 C 17,2 C 15,0 C 86 % 1010,2 hPa 0,0 l/m 2 min 0 min 279 W/m 22,5 km/h (4 Bft) 100,00 %
16.08.2021 08:48 17,1 C 17,2 C 15,0 C 86 % 1010,2 hPa 0,0 l/m 2 min 0 min 347 W/m 16,1 km/h (3 Bft) 100,00 %
16.08.2021 08:50 17,1 C 17,2 C 15,6 C 85 % 1010,2 hPa 0,0 l/m 2 min 0 min 341 W/m 19,3 km/h (3 Bft) 100,00 %
16.08.2021 08:52 17,2 C 17,2 C 15,6 C 85 % 1010,2 hPa 0,0 l/m 2 min 0 min 341 W/m 32,2 km/h (5 Bft) 100,00 %
16.08.2021 08:54 17,2 C 17,8 C 15,6 C 85 % 1010,3 hPa 0,0 l/m 2 min 0 min 339 W/m 25,7 km/h (4 Bft) 97,87 %
16.08.2021 08:56 17,3 C 18,9 C 15,6 C 85 % 1010,3 hPa 0,0 l/m 2 min 0 min 372 W/m 38,6 km/h (5 Bft) 100,00 %
16.08.2021 08:58 17,3 C 18,3 C 15,6 C 84 % 1010,2 hPa 0,0 l/m 2 min 0 min 411 W/m 29,0 km/h (5 Bft) 100,00 %
16.08.2021 09:00 17,4 C 18,3 C 15,6 C 85 % 1010,2 hPa 0,0 l/m 2 min 0 min 373 W/m 22,5 km/h (4 Bft) 100,00 %
16.08.2021 09:02 17,4 C 18,3 C 15,6 C 84 % 1010,2 hPa 0,0 l/m 2 min 0 min 373 W/m 16,1 km/h (3 Bft) 100,00 %
16.08.2021 09:04 17,5 C 18,9 C 15,6 C 84 % 1010,1 hPa 0,0 l/m 2 min 0 min 308 W/m 19,3 km/h (3 Bft) 100,00 %
16.08.2021 09:06 17,5 C 18,9 C 15,6 C 85 % 1010,2 hPa 0,0 l/m 2 min 0 min 218 W/m 19,3 km/h (3 Bft) 100,00 %
16.08.2021 09:08 17,6 C 18,3 C 15,6 C 84 % 1010,4 hPa 0,0 l/m 2 min 0 min 214 W/m 16,1 km/h (3 Bft) 97,87 %
16.08.2021 09:10 17,6 C 17,8 C 15,6 C 84 % 1010,5 hPa 0,0 l/m 0 min 0 min 201 W/m 32,2 km/h (5 Bft) 100,00 %
16.08.2021 09:12 17,5 C 17,8 C 15,6 C 84 % 1010,4 hPa 0,0 l/m 0 min 0 min 195 W/m 32,2 km/h (5 Bft) 100,00 %
16.08.2021 09:14 17,5 C 17,8 C 15,6 C 84 % 1010,4 hPa 0,0 l/m 0 min 0 min 156 W/m 19,3 km/h (3 Bft) 100,00 %
16.08.2021 09:16 17,5 C 17,2 C 15,6 C 84 % 1010,4 hPa 0,0 l/m 0 min 0 min 167 W/m 25,7 km/h (4 Bft) 100,00 %
16.08.2021 09:18 17,5 C 17,2 C 15,6 C 84 % 1010,5 hPa 0,0 l/m 0 min 0 min 166 W/m 29,0 km/h (5 Bft) 100,00 %
16.08.2021 09:20 17,5 C 17,2 C 15,6 C 84 % 1010,4 hPa 0,0 l/m 0 min 0 min 182 W/m 29,0 km/h (5 Bft) 100,00 %
16.08.2021 09:22 17,5 C 17,2 C 15,6 C 84 % 1010,7 hPa 0,0 l/m 0 min 0 min 174 W/m 25,7 km/h (4 Bft) 100,00 %
16.08.2021 09:24 17,5 C 17,2 C 15,6 C 84 % 1010,5 hPa 0,0 l/m 0 min 0 min 187 W/m 35,4 km/h (5 Bft) 100,00 %
16.08.2021 09:26 17,5 C 17,2 C 15,6 C 84 % 1010,6 hPa 0,0 l/m 0 min 0 min 142 W/m 25,7 km/h (4 Bft) 100,00 %
16.08.2021 09:28 17,5 C 17,2 C 15,6 C 84 % 1010,6 hPa 0,0 l/m 0 min 0 min 114 W/m 22,5 km/h (4 Bft) 100,00 %
16.08.2021 09:30 17,5 C 17,2 C 15,6 C 84 % 1010,6 hPa 0,0 l/m 0 min 0 min 95 W/m 29,0 km/h (5 Bft) 100,00 %
16.08.2021 09:32 17,5 C 17,2 C 15,6 C 84 % 1010,6 hPa 0,0 l/m 0 min 0 min 84 W/m 16,1 km/h (3 Bft) 100,00 %
16.08.2021 09:34 17,5 C 16,7 C 15,6 C 84 % 1010,6 hPa 0,0 l/m 0 min 0 min 72 W/m 19,3 km/h (3 Bft) 100,00 %
16.08.2021 09:36 17,5 C 17,2 C 15,6 C 84 % 1010,6 hPa 0,0 l/m 0 min 0 min 100 W/m 12,9 km/h (3 Bft) 100,00 %
16.08.2021 09:38 17,5 C 17,2 C 15,6 C 84 % 1010,7 hPa 0,0 l/m 0 min 0 min 96 W/m 16,1 km/h (3 Bft) 100,00 %
16.08.2021 09:40 17,5 C 17,2 C 15,6 C 84 % 1010,6 hPa 0,0 l/m 0 min 0 min 81 W/m 16,1 km/h (3 Bft) 100,00 %
16.08.2021 09:42 17,5 C 16,7 C 15,6 C 84 % 1010,7 hPa 0,0 l/m 0 min 0 min 101 W/m 19,3 km/h (3 Bft) 100,00 %
16.08.2021 09:44 17,5 C 16,7 C 15,6 C 84 % 1010,6 hPa 0,0 l/m 0 min 0 min 128 W/m 32,2 km/h (5 Bft) 100,00 %
16.08.2021 09:46 17,4 C 16,7 C 15,6 C 84 % 1010,6 hPa 0,0 l/m 0 min 0 min 101 W/m 16,1 km/h (3 Bft) 100,00 %
16.08.2021 09:48 17,4 C 16,7 C 15,6 C 84 % 1010,7 hPa 0,0 l/m 0 min 0 min 90 W/m 25,7 km/h (4 Bft) 95,74 %
16.08.2021 09:50 17,4 C 16,7 C 15,6 C 84 % 1010,6 hPa 0,0 l/m 0 min 0 min 71 W/m 16,1 km/h (3 Bft) 100,00 %
16.08.2021 09:52 17,4 C 16,7 C 15,6 C 84 % 1010,6 hPa 0,0 l/m 0 min 0 min 69 W/m 12,9 km/h (3 Bft) 97,87 %
16.08.2021 09:54 17,4 C 16,7 C 15,6 C 85 % 1010,6 hPa 0,0 l/m 0 min 0 min 73 W/m 12,9 km/h (3 Bft) 93,48 %
16.08.2021 09:56 17,4 C 17,2 C 15,6 C 85 % 1010,6 hPa 0,0 l/m 0 min 0 min 101 W/m 16,1 km/h (3 Bft) 97,87 %
16.08.2021 09:58 17,4 C 17,2 C 15,6 C 85 % 1010,6 hPa 0,0 l/m 0 min 0 min 142 W/m 19,3 km/h (3 Bft) 95,74 %
16.08.2021 10:00 17,4 C 17,2 C 15,6 C 85 % 1010,6 hPa 0,0 l/m 0 min 0 min 159 W/m 16,1 km/h (3 Bft) 95,74 %
16.08.2021 10:02 17,5 C 17,2 C 15,6 C 85 % 1010,5 hPa 0,0 l/m 0 min 0 min 158 W/m 29,0 km/h (5 Bft) 100,00 %
16.08.2021 10:04 17,5 C 17,2 C 15,6 C 85 % 1010,5 hPa 0,0 l/m 0 min 0 min 196 W/m 16,1 km/h (3 Bft) 100,00 %
16.08.2021 10:06 17,5 C 17,2 C 15,6 C 85 % 1010,5 hPa 0,0 l/m 0 min 0 min 171 W/m 12,9 km/h (3 Bft) 97,83 %
16.08.2021 10:08 17,6 C 17,8 C 16,1 C 85 % 1010,6 hPa 0,0 l/m 0 min 0 min 172 W/m 25,7 km/h (4 Bft) 100,00 %
16.08.2021 10:10 17,6 C 17,8 C 16,1 C 85 % 1010,4 hPa 0,0 l/m 0 min 0 min 214 W/m 16,1 km/h (3 Bft) 97,87 %
16.08.2021 10:12 17,8 C 17,8 C 16,1 C 85 % 1010,4 hPa 0,0 l/m 0 min 0 min 272 W/m 25,7 km/h (4 Bft) 97,87 %
16.08.2021 10:14 17,8 C 17,8 C 16,1 C 84 % 1010,5 hPa 0,0 l/m 2 min 0 min 296 W/m 19,3 km/h (3 Bft) 97,87 %
16.08.2021 10:16 17,9 C 18,3 C 16,7 C 85 % 1010,5 hPa 0,0 l/m 2 min 0 min 309 W/m 16,1 km/h (3 Bft) 97,87 %
16.08.2021 10:18 18,0 C 18,3 C 16,7 C 85 % 1010,5 hPa 0,0 l/m 2 min 0 min 315 W/m 12,9 km/h (3 Bft) 97,83 %
16.08.2021 10:20 18,1 C 18,3 C 16,7 C 84 % 1010,6 hPa 0,0 l/m 0 min 0 min 280 W/m 22,5 km/h (4 Bft) 97,87 %
16.08.2021 10:22 18,1 C 18,3 C 16,7 C 84 % 1010,6 hPa 0,0 l/m 0 min 0 min 268 W/m 12,9 km/h (3 Bft) 97,87 %
16.08.2021 10:24 18,2 C 18,3 C 16,7 C 84 % 1010,5 hPa 0,0 l/m 0 min 0 min 218 W/m 16,1 km/h (3 Bft) 97,87 %
16.08.2021 10:26 18,3 C 18,3 C 16,7 C 83 % 1010,6 hPa 0,0 l/m 0 min 0 min 232 W/m 19,3 km/h (3 Bft) 97,87 %
16.08.2021 10:28 18,3 C 18,3 C 16,7 C 83 % 1010,5 hPa 0,0 l/m 0 min 0 min 207 W/m 19,3 km/h (3 Bft) 97,87 %
16.08.2021 10:30 18,3 C 18,3 C 16,7 C 83 % 1010,5 hPa 0,0 l/m 0 min 0 min 175 W/m 16,1 km/h (3 Bft) 95,65 %
16.08.2021 10:32 18,3 C 18,3 C 16,7 C 84 % 1010,6 hPa 0,0 l/m 0 min 0 min 208 W/m 16,1 km/h (3 Bft) 93,62 %
16.08.2021 10:34 18,3 C 18,3 C 16,7 C 83 % 1010,6 hPa 0,0 l/m 0 min 0 min 198 W/m 19,3 km/h (3 Bft) 93,62 %
16.08.2021 10:36 18,3 C 18,3 C 16,7 C 83 % 1010,5 hPa 0,0 l/m 0 min 0 min 219 W/m 12,9 km/h (3 Bft) 95,74 %
16.08.2021 10:38 18,3 C 18,3 C 16,7 C 83 % 1010,6 hPa 0,0 l/m 0 min 0 min 193 W/m 12,9 km/h (3 Bft) 95,74 %
16.08.2021 10:40 18,4 C 18,3 C 16,7 C 83 % 1010,6 hPa 0,0 l/m 0 min 0 min 182 W/m 12,9 km/h (3 Bft) 95,65 %
16.08.2021 10:42 18,4 C 18,3 C 16,7 C 83 % 1010,5 hPa 0,0 l/m 0 min 0 min 248 W/m 22,5 km/h (4 Bft) 93,62 %
16.08.2021 10:44 18,4 C 18,3 C 16,7 C 83 % 1010,7 hPa 0,0 l/m 0 min 0 min 293 W/m 16,1 km/h (3 Bft) 93,62 %
16.08.2021 10:46 18,4 C 18,3 C 16,7 C 83 % 1010,6 hPa 0,0 l/m 0 min 0 min 261 W/m 25,7 km/h (4 Bft) 93,62 %
16.08.2021 10:48 18,5 C 18,9 C 16,7 C 83 % 1010,6 hPa 0,0 l/m 0 min 0 min 264 W/m 12,9 km/h (3 Bft) 97,87 %
16.08.2021 10:50 18,5 C 18,9 C 16,7 C 83 % 1010,6 hPa 0,0 l/m 0 min 0 min 260 W/m 25,7 km/h (4 Bft) 95,74 %
16.08.2021 10:52 18,5 C 18,9 C 16,7 C 83 % 1010,6 hPa 0,0 l/m 0 min 0 min 221 W/m 16,1 km/h (3 Bft) 95,65 %
16.08.2021 10:54 18,5 C 18,3 C 16,7 C 82 % 1010,6 hPa 0,0 l/m 0 min 0 min 195 W/m 22,5 km/h (4 Bft) 95,74 %
16.08.2021 10:56 18,6 C 18,3 C 16,7 C 82 % 1010,7 hPa 0,0 l/m 0 min 0 min 159 W/m 12,9 km/h (3 Bft) 93,62 %
16.08.2021 10:58 18,5 C 18,3 C 16,7 C 82 % 1010,7 hPa 0,0 l/m 0 min 0 min 142 W/m 19,3 km/h (3 Bft) 95,74 %
16.08.2021 11:00 18,6 C 18,3 C 16,7 C 82 % 1010,6 hPa 0,0 l/m 0 min 0 min 146 W/m 22,5 km/h (4 Bft) 95,74 %
16.08.2021 11:02 18,5 C 18,3 C 16,7 C 82 % 1010,6 hPa 0,0 l/m 0 min 0 min 151 W/m 22,5 km/h (4 Bft) 93,62 %
16.08.2021 11:04 18,5 C 18,3 C 16,7 C 82 % 1010,5 hPa 0,0 l/m 0 min 0 min 156 W/m 25,7 km/h (4 Bft) 95,65 %
16.08.2021 11:06 18,5 C 18,3 C 16,7 C 82 % 1010,6 hPa 0,0 l/m 0 min 0 min 154 W/m 22,5 km/h (4 Bft) 93,62 %
16.08.2021 11:08 18,5 C 18,3 C 16,7 C 82 % 1010,5 hPa 0,0 l/m 0 min 0 min 180 W/m 16,1 km/h (3 Bft) 95,74 %
16.08.2021 11:10 18,6 C 18,3 C 16,7 C 82 % 1010,6 hPa 0,0 l/m 0 min 0 min 185 W/m 16,1 km/h (3 Bft) 95,74 %
16.08.2021 11:12 18,6 C 18,3 C 16,7 C 82 % 1010,5 hPa 0,0 l/m 0 min 0 min 233 W/m 19,3 km/h (3 Bft) 95,74 %
16.08.2021 11:14 18,6 C 18,3 C 16,7 C 82 % 1010,6 hPa 0,0 l/m 0 min 0 min 227 W/m 35,4 km/h (5 Bft) 95,74 %
16.08.2021 11:16 18,6 C 18,3 C 16,7 C 82 % 1010,6 hPa 0,0 l/m 0 min 0 min 242 W/m 22,5 km/h (4 Bft) 95,65 %
16.08.2021 11:18 18,6 C 18,9 C 16,7 C 82 % 1010,5 hPa 0,0 l/m 0 min 0 min 296 W/m 29,0 km/h (5 Bft) 97,87 %
16.08.2021 11:20 18,7 C 18,9 C 16,7 C 81 % 1010,5 hPa 0,0 l/m 0 min 0 min 296 W/m 22,5 km/h (4 Bft) 97,87 %
16.08.2021 11:22 18,8 C 18,9 C 16,7 C 81 % 1010,5 hPa 0,0 l/m 0 min 0 min 242 W/m 25,7 km/h (4 Bft) 95,74 %
16.08.2021 11:24 18,8 C 18,9 C 17,3 C 81 % 1010,5 hPa 0,0 l/m 0 min 0 min 315 W/m 29,0 km/h (5 Bft) 78,72 %
16.08.2021 11:26 18,9 C 18,9 C 17,3 C 81 % 1010,6 hPa 0,0 l/m 0 min 0 min 315 W/m 25,7 km/h (4 Bft) 72,34 %
16.08.2021 11:28 18,9 C 18,9 C 17,3 C 81 % 1010,6 hPa 0,0 l/m 0 min 0 min 215 W/m 19,3 km/h (3 Bft) 84,78 %
16.08.2021 11:30 19,0 C 18,9 C 17,3 C 81 % 1010,5 hPa 0,0 l/m 0 min 0 min 162 W/m 16,1 km/h (3 Bft) 82,98 %
16.08.2021 11:32 19,0 C 18,9 C 17,3 C 81 % 1010,9 hPa 0,0 l/m 0 min 0 min 145 W/m 22,5 km/h (4 Bft) 91,49 %
16.08.2021 11:34 18,9 C 18,3 C 16,7 C 81 % 1010,6 hPa 0,0 l/m 0 min 0 min 148 W/m 16,1 km/h (3 Bft) 82,98 %
16.08.2021 11:36 18,9 C 18,3 C 16,7 C 81 % 1010,6 hPa 0,0 l/m 0 min 0 min 137 W/m 25,7 km/h (4 Bft) 97,87 %
16.08.2021 11:38 18,9 C 18,3 C 16,7 C 81 % 1010,6 hPa 0,0 l/m 0 min 0 min 163 W/m 16,1 km/h (3 Bft) 95,74 %
16.08.2021 11:40 18,9 C 18,9 C 16,7 C 81 % 1010,5 hPa 0,0 l/m 0 min 0 min 193 W/m 16,1 km/h (3 Bft) 95,65 %
16.08.2021 11:42 18,9 C 18,9 C 16,7 C 81 % 1010,5 hPa 0,0 l/m 0 min 0 min 207 W/m 16,1 km/h (3 Bft) 97,87 %
16.08.2021 11:44 18,9 C 18,9 C 16,7 C 81 % 1010,6 hPa 0,0 l/m 0 min 0 min 178 W/m 22,5 km/h (4 Bft) 97,87 %
16.08.2021 11:46 18,9 C 18,3 C 16,7 C 81 % 1010,6 hPa 0,0 l/m 0 min 0 min 150 W/m 19,3 km/h (3 Bft) 97,87 %
16.08.2021 11:48 18,9 C 18,3 C 16,7 C 81 % 1010,8 hPa 0,0 l/m 0 min 0 min 156 W/m 22,5 km/h (4 Bft) 97,87 %
16.08.2021 11:50 18,8 C 18,3 C 16,7 C 82 % 1010,8 hPa 0,0 l/m 0 min 0 min 224 W/m 29,0 km/h (5 Bft) 95,74 %
16.08.2021 11:52 18,8 C 18,3 C 16,7 C 82 % 1010,8 hPa 0,0 l/m 0 min 0 min 267 W/m 25,7 km/h (4 Bft) 91,30 %
16.08.2021 11:54 18,7 C 18,3 C 16,1 C 83 % 1010,7 hPa 0,0 l/m 0 min 0 min 244 W/m 22,5 km/h (4 Bft) 89,36 %
16.08.2021 11:56 18,6 C 18,3 C 16,1 C 83 % 1010,9 hPa 0,0 l/m 0 min 0 min 230 W/m 25,7 km/h (4 Bft) 87,23 %
16.08.2021 11:58 18,5 C 17,8 C 15,6 C 84 % 1010,9 hPa 0,0 l/m 0 min 0 min 190 W/m 16,1 km/h (3 Bft) 97,87 %
16.08.2021 12:00 18,4 C 17,8 C 15,6 C 84 % 1010,8 hPa 0,0 l/m 0 min 0 min 152 W/m 16,1 km/h (3 Bft) 93,62 %
16.08.2021 12:02 18,3 C 17,8 C 15,6 C 84 % 1010,9 hPa 0,0 l/m 0 min 0 min 100 W/m 22,5 km/h (4 Bft) 89,36 %
16.08.2021 12:04 18,2 C 17,2 C 15,6 C 85 % 1010,9 hPa 0,0 l/m 0 min 0 min 80 W/m 16,1 km/h (3 Bft) 86,96 %
16.08.2021 12:08 18,1 C 17,2 C 15,0 C 86 % 1011,0 hPa 0,0 l/m 0 min 4 min 67 W/m 19,3 km/h (3 Bft) 97,87 %
16.08.2021 12:10 18,0 C 16,7 C 14,5 C 87 % 1011,3 hPa 0,2 l/m 0 min 2 min 58 W/m 16,1 km/h (3 Bft) 95,74 %
16.08.2021 12:12 17,8 C 16,1 C 14,5 C 88 % 1011,2 hPa 0,6 l/m 0 min 2 min 60 W/m 16,1 km/h (3 Bft) 100,00 %
16.08.2021 12:14 17,6 C 15,6 C 13,9 C 89 % 1011,3 hPa 0,6 l/m 0 min 2 min 89 W/m 19,3 km/h (3 Bft) 97,87 %
16.08.2021 12:16 17,4 C 15,6 C 13,9 C 90 % 1011,3 hPa 0,2 l/m 0 min 2 min 101 W/m 19,3 km/h (3 Bft) 97,83 %
16.08.2021 12:18 17,1 C 15,0 C 13,9 C 90 % 1011,3 hPa 0,4 l/m 0 min 2 min 112 W/m 22,5 km/h (4 Bft) 93,62 %
16.08.2021 12:20 16,9 C 15,0 C 13,9 C 91 % 1011,3 hPa 0,2 l/m 0 min 2 min 140 W/m 22,5 km/h (4 Bft) 93,62 %
16.08.2021 12:22 16,8 C 15,0 C 13,9 C 91 % 1011,2 hPa 0,0 l/m 0 min 2 min 186 W/m 16,1 km/h (3 Bft) 95,74 %
16.08.2021 12:24 16,6 C 15,0 C 13,4 C 92 % 1011,3 hPa 0,2 l/m 0 min 2 min 195 W/m 19,3 km/h (3 Bft) 95,74 %
16.08.2021 12:26 16,5 C 15,0 C 13,4 C 92 % 1011,3 hPa 0,0 l/m 0 min 2 min 205 W/m 19,3 km/h (3 Bft) 95,74 %
16.08.2021 12:28 16,5 C 15,6 C 13,9 C 92 % 1011,3 hPa 0,0 l/m 0 min 2 min 227 W/m 22,5 km/h (4 Bft) 97,83 %
16.08.2021 12:30 16,5 C 15,6 C 13,9 C 93 % 1011,4 hPa 0,0 l/m 0 min 2 min 233 W/m 12,9 km/h (3 Bft) 95,74 %
16.08.2021 12:32 16,5 C 16,1 C 13,9 C 93 % 1011,5 hPa 0,0 l/m 0 min 2 min 237 W/m 19,3 km/h (3 Bft) 97,87 %
16.08.2021 12:34 16,5 C 16,1 C 13,9 C 93 % 1011,4 hPa 0,0 l/m 0 min 2 min 238 W/m 16,1 km/h (3 Bft) 97,87 %
16.08.2021 12:36 16,5 C 15,6 C 13,9 C 94 % 1011,5 hPa 0,2 l/m 0 min 2 min 245 W/m 12,9 km/h (3 Bft) 97,87 %
16.08.2021 12:38 16,5 C 15,6 C 13,9 C 94 % 1011,5 hPa 0,0 l/m 0 min 2 min 275 W/m 12,9 km/h (3 Bft) 97,87 %
16.08.2021 12:40 16,5 C 16,1 C 13,9 C 94 % 1011,4 hPa 0,0 l/m 0 min 0 min 299 W/m 12,9 km/h (3 Bft) 95,65 %
16.08.2021 12:42 16,5 C 16,1 C 13,9 C 94 % 1011,5 hPa 0,0 l/m 0 min 0 min 257 W/m 19,3 km/h (3 Bft) 97,87 %
16.08.2021 12:44 16,4 C 16,1 C 13,9 C 94 % 1011,5 hPa 0,0 l/m 0 min 0 min 200 W/m 19,3 km/h (3 Bft) 97,87 %
16.08.2021 12:46 16,5 C 16,1 C 13,9 C 94 % 1011,5 hPa 0,0 l/m 0 min 0 min 167 W/m 16,1 km/h (3 Bft) 97,87 %
16.08.2021 12:48 16,4 C 16,1 C 13,9 C 94 % 1011,4 hPa 0,0 l/m 0 min 0 min 246 W/m 22,5 km/h (4 Bft) 100,00 %
16.08.2021 12:50 16,4 C 16,1 C 13,9 C 94 % 1011,4 hPa 0,0 l/m 0 min 0 min 348 W/m 16,1 km/h (3 Bft) 100,00 %
16.08.2021 12:52 16,4 C 16,1 C 13,9 C 94 % 1011,5 hPa 0,0 l/m 2 min 0 min 411 W/m 19,3 km/h (3 Bft) 97,83 %
16.08.2021 12:54 16,5 C 16,7 C 14,5 C 94 % 1011,5 hPa 0,0 l/m 0 min 0 min 378 W/m 16,1 km/h (3 Bft) 100,00 %
16.08.2021 12:56 16,6 C 16,7 C 14,5 C 95 % 1011,5 hPa 0,0 l/m 0 min 0 min 309 W/m 22,5 km/h (4 Bft) 100,00 %
16.08.2021 12:58 16,6 C 16,7 C 14,5 C 94 % 1011,5 hPa 0,0 l/m 0 min 0 min 200 W/m 12,9 km/h (3 Bft) 100,00 %
16.08.2021 13:00 16,6 C 16,1 C 14,5 C 94 % 1011,6 hPa 0,0 l/m 0 min 0 min 154 W/m 16,1 km/h (3 Bft) 100,00 %
16.08.2021 13:02 16,6 C 16,1 C 13,9 C 94 % 1011,6 hPa 0,0 l/m 0 min 0 min 160 W/m 19,3 km/h (3 Bft) 100,00 %
16.08.2021 13:04 16,5 C 16,1 C 13,9 C 94 % 1011,5 hPa 0,0 l/m 0 min 0 min 128 W/m 9,7 km/h (2 Bft) 100,00 %
16.08.2021 13:06 16,5 C 16,1 C 13,9 C 94 % 1011,6 hPa 0,0 l/m 0 min 0 min 115 W/m 19,3 km/h (3 Bft) 100,00 %
16.08.2021 13:08 16,5 C 16,1 C 13,9 C 94 % 1011,6 hPa 0,0 l/m 0 min 0 min 101 W/m 9,7 km/h (2 Bft) 95,74 %
16.08.2021 13:10 16,5 C 16,1 C 13,9 C 94 % 1011,6 hPa 0,0 l/m 0 min 0 min 95 W/m 12,9 km/h (3 Bft) 95,74 %
16.08.2021 13:12 16,4 C 15,6 C 13,9 C 94 % 1011,6 hPa 0,0 l/m 0 min 0 min 94 W/m 12,9 km/h (3 Bft) 97,87 %
16.08.2021 13:14 16,4 C 15,6 C 13,9 C 94 % 1011,6 hPa 0,0 l/m 0 min 0 min 94 W/m 9,7 km/h (2 Bft) 97,14 %
16.08.2021 13:16 16,4 C 15,6 C 13,9 C 94 % 1011,7 hPa 0,0 l/m 0 min 0 min 82 W/m 22,5 km/h (4 Bft) 98,28 %
16.08.2021 13:18 16,4 C 15,6 C 13,9 C 94 % 1011,6 hPa 0,0 l/m 0 min 0 min 65 W/m 12,9 km/h (3 Bft) 93,62 %
16.08.2021 13:20 16,4 C 15,6 C 13,9 C 94 % 1011,6 hPa 0,0 l/m 0 min 0 min 62 W/m 6,4 km/h (2 Bft) 95,74 %
16.08.2021 13:22 16,4 C 15,6 C 13,9 C 94 % 1011,6 hPa 0,0 l/m 0 min 2 min 69 W/m 12,9 km/h (3 Bft) 97,87 %
16.08.2021 13:24 16,3 C 15,6 C 13,9 C 94 % 1011,6 hPa 0,0 l/m 0 min 2 min 74 W/m 6,4 km/h (2 Bft) 97,87 %
16.08.2021 13:26 16,4 C 15,6 C 13,9 C 94 % 1011,7 hPa 0,0 l/m 0 min 0 min 47 W/m 9,7 km/h (2 Bft) 97,83 %
16.08.2021 13:28 16,4 C 15,6 C 13,9 C 94 % 1011,7 hPa 0,0 l/m 0 min 0 min 28 W/m 6,4 km/h (2 Bft) 97,87 %
16.08.2021 13:30 16,4 C 15,6 C 13,9 C 94 % 1011,7 hPa 0,0 l/m 0 min 0 min 23 W/m 6,4 km/h (2 Bft) 97,87 %
16.08.2021 13:32 16,4 C 15,6 C 13,9 C 94 % 1011,8 hPa 0,0 l/m 0 min 2 min 27 W/m 9,7 km/h (2 Bft) 97,14 %
16.08.2021 13:34 16,4 C 15,6 C 13,9 C 94 % 1011,9 hPa 0,0 l/m 0 min 2 min 27 W/m 16,1 km/h (3 Bft) 95,74 %
16.08.2021 13:36 16,3 C 15,6 C 13,9 C 94 % 1011,9 hPa 0,0 l/m 0 min 2 min 20 W/m 16,1 km/h (3 Bft) 97,87 %
16.08.2021 13:38 16,1 C 15,6 C 13,4 C 94 % 1012,0 hPa 0,0 l/m 0 min 2 min 20 W/m 19,3 km/h (3 Bft) 97,87 %
16.08.2021 13:40 16,0 C 15,0 C 13,4 C 94 % 1011,9 hPa 0,2 l/m 0 min 2 min 19 W/m 22,5 km/h (4 Bft) 91,49 %
16.08.2021 13:42 15,9 C 15,0 C 13,4 C 93 % 1012,1 hPa 0,0 l/m 0 min 2 min 28 W/m 25,7 km/h (4 Bft) 93,48 %
16.08.2021 13:44 15,8 C 14,4 C 12,8 C 93 % 1012,0 hPa 0,2 l/m 0 min 2 min 28 W/m 29,0 km/h (5 Bft) 91,49 %
16.08.2021 13:46 15,6 C 14,4 C 12,8 C 93 % 1012,0 hPa 0,0 l/m 0 min 2 min 41 W/m 22,5 km/h (4 Bft) 87,23 %
16.08.2021 13:48 15,6 C 14,4 C 13,4 C 93 % 1012,0 hPa 0,0 l/m 0 min 2 min 56 W/m 9,7 km/h (2 Bft) 82,98 %
16.08.2021 13:50 15,6 C 14,4 C 13,4 C 93 % 1012,1 hPa 0,0 l/m 0 min 0 min 64 W/m 12,9 km/h (3 Bft) 91,49 %
16.08.2021 13:52 15,6 C 14,4 C 13,4 C 93 % 1012,0 hPa 0,0 l/m 0 min 0 min 76 W/m 16,1 km/h (3 Bft) 91,49 %
16.08.2021 13:54 15,6 C 14,4 C 13,4 C 94 % 1012,1 hPa 0,0 l/m 0 min 0 min 87 W/m 16,1 km/h (3 Bft) 91,30 %
16.08.2021 13:56 15,6 C 15,0 C 13,4 C 94 % 1012,0 hPa 0,0 l/m 0 min 0 min 90 W/m 16,1 km/h (3 Bft) 93,62 %
16.08.2021 13:58 15,6 C 15,0 C 13,4 C 94 % 1012,1 hPa 0,0 l/m 0 min 0 min 90 W/m 6,4 km/h (2 Bft) 89,36 %
16.08.2021 14:00 15,6 C 15,0 C 13,4 C 94 % 1012,1 hPa 0,0 l/m 0 min 0 min 88 W/m 9,7 km/h (2 Bft) 85,11 %
16.08.2021 14:02 15,6 C 15,0 C 13,4 C 93 % 1012,1 hPa 0,0 l/m 0 min 0 min 76 W/m 19,3 km/h (3 Bft) 93,62 %
16.08.2021 14:04 15,6 C 15,0 C 13,4 C 93 % 1012,1 hPa 0,0 l/m 0 min 0 min 67 W/m 16,1 km/h (3 Bft) 95,74 %
16.08.2021 14:06 15,6 C 15,0 C 13,4 C 93 % 1012,1 hPa 0,0 l/m 0 min 0 min 81 W/m 19,3 km/h (3 Bft) 97,83 %
16.08.2021 14:08 15,6 C 15,0 C 12,8 C 93 % 1012,3 hPa 0,0 l/m 0 min 0 min 87 W/m 25,7 km/h (4 Bft) 89,36 %
16.08.2021 14:10 15,6 C 15,0 C 12,8 C 92 % 1012,1 hPa 0,0 l/m 0 min 0 min 112 W/m 12,9 km/h (3 Bft) 87,23 %
16.08.2021 14:12 15,6 C 15,0 C 13,4 C 92 % 1012,1 hPa 0,0 l/m 0 min 0 min 144 W/m 16,1 km/h (3 Bft) 91,49 %
16.08.2021 14:14 15,6 C 15,6 C 13,4 C 92 % 1012,1 hPa 0,0 l/m 0 min 0 min 169 W/m 12,9 km/h (3 Bft) 93,62 %
16.08.2021 14:16 15,6 C 15,6 C 13,4 C 91 % 1012,2 hPa 0,0 l/m 0 min 2 min 130 W/m 16,1 km/h (3 Bft) 76,60 %
16.08.2021 14:18 15,7 C 15,6 C 13,4 C 91 % 1012,2 hPa 0,0 l/m 0 min 0 min 99 W/m 12,9 km/h (3 Bft) 91,30 %
16.08.2021 14:20 15,7 C 15,0 C 13,4 C 91 % 1012,3 hPa 0,0 l/m 0 min 0 min 97 W/m 19,3 km/h (3 Bft) 89,36 %
16.08.2021 14:22 15,7 C 15,0 C 13,4 C 91 % 1012,3 hPa 0,0 l/m 0 min 0 min 102 W/m 16,1 km/h (3 Bft) 93,62 %
16.08.2021 14:24 15,7 C 15,0 C 12,8 C 91 % 1012,2 hPa 0,0 l/m 0 min 0 min 85 W/m 12,9 km/h (3 Bft) 91,49 %
16.08.2021 14:26 15,7 C 15,0 C 13,4 C 91 % 1012,2 hPa 0,0 l/m 0 min 0 min 72 W/m 16,1 km/h (3 Bft) 85,11 %
16.08.2021 14:28 15,7 C 15,0 C 13,4 C 91 % 1012,3 hPa 0,0 l/m 0 min 0 min 68 W/m 12,9 km/h (3 Bft) 89,13 %
16.08.2021 14:30 15,7 C 15,0 C 13,4 C 90 % 1012,3 hPa 0,0 l/m 0 min 0 min 73 W/m 12,9 km/h (3 Bft) 89,36 %
16.08.2021 14:32 15,7 C 15,0 C 13,4 C 90 % 1012,3 hPa 0,0 l/m 0 min 0 min 77 W/m 12,9 km/h (3 Bft) 74,47 %
16.08.2021 14:34 15,6 C 15,0 C 13,4 C 90 % 1012,4 hPa 0,0 l/m 0 min 0 min 89 W/m 12,9 km/h (3 Bft) 82,98 %
16.08.2021 14:36 15,6 C 15,0 C 12,8 C 90 % 1012,5 hPa 0,0 l/m 0 min 2 min 115 W/m 16,1 km/h (3 Bft) 89,36 %
16.08.2021 14:38 15,7 C 15,0 C 13,4 C 90 % 1012,4 hPa 0,0 l/m 0 min 2 min 138 W/m 19,3 km/h (3 Bft) 74,47 %
16.08.2021 14:40 15,7 C 15,0 C 13,4 C 90 % 1012,6 hPa 0,2 l/m 0 min 2 min 174 W/m 12,9 km/h (3 Bft) 89,13 %
16.08.2021 14:42 15,7 C 15,0 C 13,4 C 90 % 1012,5 hPa 0,0 l/m 0 min 2 min 196 W/m 22,5 km/h (4 Bft) 89,36 %
16.08.2021 14:44 15,8 C 15,0 C 13,4 C 90 % 1012,5 hPa 0,0 l/m 0 min 2 min 197 W/m 19,3 km/h (3 Bft) 95,74 %
16.08.2021 14:46 15,8 C 15,6 C 13,4 C 91 % 1012,5 hPa 0,0 l/m 0 min 0 min 190 W/m 19,3 km/h (3 Bft) 93,62 %
16.08.2021 14:48 15,9 C 15,6 C 13,4 C 91 % 1012,5 hPa 0,0 l/m 0 min 0 min 186 W/m 12,9 km/h (3 Bft) 100,00 %
16.08.2021 14:50 15,9 C 15,6 C 13,4 C 91 % 1012,5 hPa 0,0 l/m 0 min 0 min 181 W/m 16,1 km/h (3 Bft) 100,00 %
16.08.2021 14:52 15,9 C 15,6 C 13,4 C 91 % 1012,5 hPa 0,0 l/m 0 min 0 min 184 W/m 9,7 km/h (2 Bft) 97,83 %
16.08.2021 14:54 15,9 C 15,6 C 13,4 C 91 % 1012,5 hPa 0,0 l/m 0 min 0 min 201 W/m 12,9 km/h (3 Bft) 100,00 %
16.08.2021 14:56 16,0 C 15,6 C 13,4 C 91 % 1012,6 hPa 0,0 l/m 0 min 0 min 216 W/m 16,1 km/h (3 Bft) 100,00 %
16.08.2021 14:58 16,0 C 15,6 C 13,9 C 91 % 1012,5 hPa 0,0 l/m 0 min 0 min 214 W/m 12,9 km/h (3 Bft) 100,00 %
16.08.2021 15:00 16,0 C 15,6 C 13,4 C 91 % 1012,4 hPa 0,0 l/m 0 min 0 min 208 W/m 19,3 km/h (3 Bft) 100,00 %
16.08.2021 15:02 16,1 C 15,6 C 13,4 C 91 % 1012,5 hPa 0,0 l/m 0 min 0 min 207 W/m 22,5 km/h (4 Bft) 100,00 %
16.08.2021 15:04 16,1 C 15,6 C 13,4 C 91 % 1012,5 hPa 0,0 l/m 0 min 0 min 211 W/m 19,3 km/h (3 Bft) 100,00 %
16.08.2021 15:06 16,1 C 16,1 C 13,4 C 90 % 1012,5 hPa 0,0 l/m 0 min 0 min 213 W/m 19,3 km/h (3 Bft) 100,00 %
16.08.2021 15:08 16,1 C 16,1 C 13,4 C 90 % 1012,6 hPa 0,0 l/m 0 min 0 min 213 W/m 19,3 km/h (3 Bft) 100,00 %
16.08.2021 15:10 16,1 C 16,1 C 13,4 C 90 % 1012,5 hPa 0,0 l/m 0 min 0 min 214 W/m 19,3 km/h (3 Bft) 100,00 %
16.08.2021 15:12 16,2 C 16,1 C 13,4 C 89 % 1012,6 hPa 0,0 l/m 0 min 0 min 217 W/m 16,1 km/h (3 Bft) 100,00 %
16.08.2021 15:14 16,3 C 16,1 C 13,9 C 89 % 1012,6 hPa 0,0 l/m 0 min 0 min 229 W/m 16,1 km/h (3 Bft) 100,00 %
16.08.2021 15:16 16,3 C 16,1 C 13,4 C 89 % 1012,6 hPa 0,0 l/m 0 min 0 min 238 W/m 29,0 km/h (5 Bft) 100,00 %
16.08.2021 15:18 16,3 C 16,1 C 13,4 C 88 % 1012,6 hPa 0,0 l/m 0 min 0 min 244 W/m 12,9 km/h (3 Bft) 100,00 %
16.08.2021 15:20 16,4 C 16,1 C 13,9 C 87 % 1012,7 hPa 0,0 l/m 0 min 0 min 231 W/m 16,1 km/h (3 Bft) 100,00 %
16.08.2021 15:22 16,4 C 16,1 C 13,9 C 87 % 1012,7 hPa 0,0 l/m 0 min 0 min 217 W/m 12,9 km/h (3 Bft) 95,74 %
16.08.2021 15:24 16,5 C 16,1 C 13,9 C 87 % 1012,7 hPa 0,0 l/m 0 min 0 min 191 W/m 19,3 km/h (3 Bft) 100,00 %
16.08.2021 15:26 16,5 C 16,1 C 13,4 C 87 % 1012,8 hPa 0,0 l/m 0 min 0 min 160 W/m 12,9 km/h (3 Bft) 97,87 %
16.08.2021 15:28 16,5 C 16,1 C 13,9 C 87 % 1012,8 hPa 0,0 l/m 0 min 0 min 130 W/m 12,9 km/h (3 Bft) 100,00 %
16.08.2021 15:30 16,5 C 16,1 C 13,4 C 87 % 1012,8 hPa 0,0 l/m 0 min 0 min 117 W/m 19,3 km/h (3 Bft) 100,00 %
16.08.2021 15:32 16,5 C 16,1 C 13,4 C 87 % 1013,0 hPa 0,0 l/m 0 min 0 min 107 W/m 12,9 km/h (3 Bft) 100,00 %
16.08.2021 15:34 16,5 C 16,1 C 13,4 C 86 % 1012,9 hPa 0,0 l/m 0 min 0 min 108 W/m 16,1 km/h (3 Bft) 100,00 %
16.08.2021 15:36 16,5 C 15,6 C 13,4 C 86 % 1012,9 hPa 0,0 l/m 0 min 0 min 89 W/m 12,9 km/h (3 Bft) 100,00 %
16.08.2021 15:38 16,4 C 15,6 C 13,4 C 86 % 1012,9 hPa 0,0 l/m 0 min 0 min 100 W/m 12,9 km/h (3 Bft) 100,00 %
16.08.2021 15:40 16,4 C 16,1 C 13,4 C 86 % 1012,9 hPa 0,0 l/m 0 min 0 min 116 W/m 16,1 km/h (3 Bft) 100,00 %
16.08.2021 15:42 16,4 C 16,1 C 13,4 C 86 % 1012,9 hPa 0,0 l/m 0 min 0 min 119 W/m 16,1 km/h (3 Bft) 100,00 %
16.08.2021 15:44 16,4 C 16,1 C 13,4 C 86 % 1013,0 hPa 0,0 l/m 0 min 0 min 135 W/m 16,1 km/h (3 Bft) 100,00 %
16.08.2021 15:46 16,5 C 16,1 C 13,4 C 86 % 1013,0 hPa 0,0 l/m 0 min 0 min 112 W/m 16,1 km/h (3 Bft) 100,00 %
16.08.2021 15:48 16,5 C 16,1 C 13,4 C 86 % 1013,1 hPa 0,0 l/m 0 min 0 min 99 W/m 12,9 km/h (3 Bft) 97,87 %
16.08.2021 15:50 16,5 C 16,1 C 13,4 C 85 % 1013,1 hPa 0,0 l/m 0 min 0 min 89 W/m 19,3 km/h (3 Bft) 100,00 %
16.08.2021 15:52 16,5 C 16,1 C 13,4 C 85 % 1013,1 hPa 0,0 l/m 0 min 0 min 103 W/m 19,3 km/h (3 Bft) 100,00 %
16.08.2021 15:54 16,5 C 16,1 C 13,4 C 85 % 1013,1 hPa 0,0 l/m 0 min 0 min 113 W/m 16,1 km/h (3 Bft) 97,87 %
16.08.2021 15:56 16,5 C 16,1 C 13,4 C 85 % 1013,2 hPa 0,0 l/m 0 min 0 min 93 W/m 16,1 km/h (3 Bft) 95,74 %
16.08.2021 15:58 16,5 C 15,6 C 13,4 C 85 % 1013,2 hPa 0,0 l/m 0 min 0 min 87 W/m 12,9 km/h (3 Bft) 100,00 %
16.08.2021 16:00 16,4 C 15,6 C 13,4 C 84 % 1013,2 hPa 0,0 l/m 0 min 0 min 85 W/m 12,9 km/h (3 Bft) 100,00 %
16.08.2021 16:02 16,4 C 15,6 C 13,4 C 84 % 1013,2 hPa 0,0 l/m 0 min 0 min 61 W/m 19,3 km/h (3 Bft) 98,11 %
16.08.2021 16:04 16,4 C 15,6 C 12,8 C 84 % 1013,3 hPa 0,0 l/m 0 min 0 min 54 W/m 32,2 km/h (5 Bft) 95,74 %
16.08.2021 16:06 16,3 C 15,6 C 12,8 C 84 % 1013,6 hPa 0,0 l/m 0 min 0 min 58 W/m 22,5 km/h (4 Bft) 95,65 %
16.08.2021 16:08 16,1 C 15,0 C 12,8 C 84 % 1013,9 hPa 0,0 l/m 0 min 0 min 51 W/m 32,2 km/h (5 Bft) 97,87 %
16.08.2021 16:10 15,8 C 14,4 C 12,3 C 86 % 1013,9 hPa 0,0 l/m 0 min 2 min 36 W/m 32,2 km/h (5 Bft) 95,74 %
16.08.2021 16:12 15,4 C 13,9 C 12,3 C 87 % 1014,0 hPa 0,0 l/m 0 min 2 min 39 W/m 32,2 km/h (5 Bft) 96,00 %
16.08.2021 16:14 15,1 C 13,9 C 12,3 C 88 % 1014,0 hPa 0,0 l/m 0 min 2 min 67 W/m 32,2 km/h (5 Bft) 93,62 %
16.08.2021 16:16 15,0 C 13,9 C 12,3 C 89 % 1014,1 hPa 0,2 l/m 0 min 2 min 92 W/m 19,3 km/h (3 Bft) 95,74 %
16.08.2021 16:18 14,9 C 13,9 C 12,3 C 90 % 1014,0 hPa 0,0 l/m 0 min 0 min 105 W/m 22,5 km/h (4 Bft) 95,74 %
16.08.2021 16:20 14,8 C 13,9 C 12,3 C 90 % 1014,1 hPa 0,0 l/m 0 min 0 min 117 W/m 12,9 km/h (3 Bft) 95,74 %
16.08.2021 16:22 14,7 C 13,9 C 12,3 C 91 % 1014,2 hPa 0,0 l/m 0 min 0 min 136 W/m 12,9 km/h (3 Bft) 95,74 %
16.08.2021 16:24 14,6 C 13,9 C 12,3 C 91 % 1014,1 hPa 0,0 l/m 0 min 0 min 159 W/m 16,1 km/h (3 Bft) 95,74 %
16.08.2021 16:26 14,7 C 13,9 C 12,8 C 92 % 1014,2 hPa 0,0 l/m 0 min 0 min 170 W/m 16,1 km/h (3 Bft) 95,74 %
16.08.2021 16:28 14,6 C 14,4 C 12,8 C 92 % 1014,1 hPa 0,0 l/m 0 min 0 min 188 W/m 16,1 km/h (3 Bft) 91,30 %
16.08.2021 16:30 14,6 C 14,4 C 12,8 C 92 % 1014,2 hPa 0,0 l/m 0 min 0 min 186 W/m 22,5 km/h (4 Bft) 95,74 %
16.08.2021 16:32 14,6 C 14,4 C 12,3 C 92 % 1014,2 hPa 0,0 l/m 0 min 0 min 194 W/m 32,2 km/h (5 Bft) 91,67 %
16.08.2021 16:34 14,5 C 14,4 C 12,3 C 92 % 1014,0 hPa 0,0 l/m 0 min 0 min 210 W/m 38,6 km/h (5 Bft) 93,62 %
16.08.2021 16:36 14,5 C 14,4 C 12,3 C 92 % 1014,0 hPa 0,0 l/m 0 min 0 min 244 W/m 22,5 km/h (4 Bft) 97,87 %
16.08.2021 16:38 14,5 C 14,4 C 12,8 C 92 % 1014,1 hPa 0,0 l/m 0 min 0 min 270 W/m 16,1 km/h (3 Bft) 97,83 %
16.08.2021 16:40 14,5 C 15,0 C 12,8 C 92 % 1014,0 hPa 0,0 l/m 0 min 0 min 263 W/m 16,1 km/h (3 Bft) 97,87 %
16.08.2021 16:42 14,6 C 15,0 C 12,8 C 92 % 1014,1 hPa 0,0 l/m 0 min 0 min 243 W/m 16,1 km/h (3 Bft) 95,74 %
16.08.2021 16:44 14,7 C 15,0 C 12,8 C 92 % 1014,1 hPa 0,0 l/m 0 min 0 min 234 W/m 29,0 km/h (5 Bft) 97,87 %
16.08.2021 16:46 14,8 C 15,0 C 12,8 C 92 % 1014,1 hPa 0,0 l/m 0 min 0 min 233 W/m 19,3 km/h (3 Bft) 97,87 %
16.08.2021 16:48 14,8 C 15,0 C 12,8 C 92 % 1014,1 hPa 0,0 l/m 0 min 0 min 218 W/m 25,7 km/h (4 Bft) 89,36 %
16.08.2021 16:50 14,8 C 15,0 C 12,8 C 92 % 1014,2 hPa 0,0 l/m 0 min 0 min 214 W/m 16,1 km/h (3 Bft) 95,74 %
16.08.2021 16:52 14,8 C 15,0 C 12,8 C 92 % 1014,3 hPa 0,0 l/m 0 min 0 min 200 W/m 16,1 km/h (3 Bft) 95,65 %
16.08.2021 16:54 14,8 C 15,0 C 12,8 C 91 % 1014,2 hPa 0,0 l/m 0 min 0 min 151 W/m 16,1 km/h (3 Bft) 95,74 %
16.08.2021 16:56 14,8 C 14,4 C 12,8 C 91 % 1014,2 hPa 0,0 l/m 0 min 0 min 87 W/m 12,9 km/h (3 Bft) 93,62 %
16.08.2021 16:58 14,8 C 14,4 C 12,8 C 90 % 1014,1 hPa 0,0 l/m 0 min 0 min 76 W/m 19,3 km/h (3 Bft) 95,74 %
16.08.2021 17:00 14,7 C 14,4 C 12,8 C 90 % 1014,1 hPa 0,0 l/m 0 min 0 min 111 W/m 12,9 km/h (3 Bft) 95,74 %
16.08.2021 17:02 14,7 C 14,4 C 12,3 C 90 % 1014,2 hPa 0,0 l/m 0 min 0 min 139 W/m 19,3 km/h (3 Bft) 97,87 %
16.08.2021 17:04 14,6 C 14,4 C 12,3 C 89 % 1014,1 hPa 0,0 l/m 0 min 0 min 146 W/m 12,9 km/h (3 Bft) 97,87 %
16.08.2021 17:06 14,6 C 14,4 C 12,3 C 88 % 1014,2 hPa 0,0 l/m 0 min 0 min 141 W/m 12,9 km/h (3 Bft) 91,49 %
16.08.2021 17:08 14,6 C 14,4 C 12,3 C 87 % 1014,3 hPa 0,0 l/m 0 min 0 min 126 W/m 12,9 km/h (3 Bft) 89,36 %
16.08.2021 17:10 14,6 C 14,4 C 12,3 C 87 % 1014,3 hPa 0,0 l/m 0 min 0 min 105 W/m 12,9 km/h (3 Bft) 82,98 %
16.08.2021 17:12 14,6 C 14,4 C 12,3 C 86 % 1014,4 hPa 0,0 l/m 0 min 0 min 100 W/m 16,1 km/h (3 Bft) 80,85 %
16.08.2021 17:14 14,6 C 14,4 C 12,3 C 86 % 1014,4 hPa 0,0 l/m 0 min 0 min 100 W/m 9,7 km/h (2 Bft) 76,09 %
16.08.2021 17:16 14,6 C 14,4 C 12,3 C 86 % 1014,4 hPa 0,0 l/m 0 min 2 min 98 W/m 12,9 km/h (3 Bft) 93,62 %
16.08.2021 17:18 14,6 C 14,4 C 12,3 C 86 % 1014,5 hPa 0,0 l/m 0 min 2 min 93 W/m 29,0 km/h (5 Bft) 95,74 %
16.08.2021 17:20 14,6 C 13,9 C 12,3 C 86 % 1014,5 hPa 0,0 l/m 0 min 2 min 73 W/m 12,9 km/h (3 Bft) 97,87 %
16.08.2021 17:22 14,6 C 13,9 C 12,3 C 86 % 1014,5 hPa 0,0 l/m 0 min 2 min 53 W/m 12,9 km/h (3 Bft) 97,87 %
16.08.2021 17:24 14,5 C 13,9 C 12,3 C 86 % 1014,6 hPa 0,0 l/m 0 min 2 min 49 W/m 9,7 km/h (2 Bft) 97,87 %
16.08.2021 17:26 14,6 C 13,9 C 12,3 C 87 % 1014,7 hPa 0,0 l/m 0 min 2 min 51 W/m 9,7 km/h (2 Bft) 97,83 %
16.08.2021 17:28 14,5 C 13,9 C 12,3 C 87 % 1014,7 hPa 0,0 l/m 0 min 2 min 48 W/m 12,9 km/h (3 Bft) 97,87 %
16.08.2021 17:30 14,5 C 13,9 C 12,3 C 88 % 1014,7 hPa 0,0 l/m 0 min 2 min 53 W/m 12,9 km/h (3 Bft) 97,87 %
16.08.2021 17:32 14,5 C 13,9 C 12,3 C 88 % 1014,7 hPa 0,0 l/m 0 min 2 min 63 W/m 9,7 km/h (2 Bft) 97,92 %
16.08.2021 17:34 14,5 C 13,9 C 12,3 C 89 % 1014,8 hPa 0,0 l/m 0 min 2 min 60 W/m 12,9 km/h (3 Bft) 97,83 %
16.08.2021 17:36 14,4 C 13,9 C 12,3 C 89 % 1014,8 hPa 0,0 l/m 0 min 2 min 47 W/m 6,4 km/h (2 Bft) 97,87 %
16.08.2021 17:38 14,4 C 13,9 C 12,3 C 89 % 1014,8 hPa 0,2 l/m 0 min 2 min 43 W/m 12,9 km/h (3 Bft) 95,74 %
16.08.2021 17:40 14,3 C 13,9 C 12,3 C 90 % 1014,8 hPa 0,0 l/m 0 min 2 min 36 W/m 12,9 km/h (3 Bft) 91,49 %
16.08.2021 17:42 14,2 C 13,3 C 12,3 C 90 % 1014,8 hPa 0,0 l/m 0 min 2 min 32 W/m 12,9 km/h (3 Bft) 93,62 %
16.08.2021 17:44 14,2 C 13,3 C 11,7 C 90 % 1014,7 hPa 0,0 l/m 0 min 2 min 28 W/m 16,1 km/h (3 Bft) 93,62 %
16.08.2021 17:46 14,2 C 13,3 C 12,3 C 90 % 1014,7 hPa 0,0 l/m 0 min 2 min 26 W/m 16,1 km/h (3 Bft) 91,30 %
16.08.2021 17:48 14,2 C 13,3 C 12,3 C 91 % 1014,7 hPa 0,0 l/m 0 min 2 min 26 W/m 12,9 km/h (3 Bft) 82,98 %
16.08.2021 17:50 14,2 C 13,3 C 11,7 C 91 % 1014,7 hPa 0,2 l/m 0 min 2 min 30 W/m 19,3 km/h (3 Bft) 78,72 %
16.08.2021 17:52 14,2 C 13,3 C 11,7 C 91 % 1014,7 hPa 0,0 l/m 0 min 2 min 32 W/m 16,1 km/h (3 Bft) 95,74 %
16.08.2021 17:54 14,2 C 13,3 C 11,7 C 91 % 1014,8 hPa 0,0 l/m 0 min 2 min 35 W/m 12,9 km/h (3 Bft) 93,62 %
16.08.2021 17:56 14,2 C 13,3 C 11,7 C 92 % 1014,8 hPa 0,0 l/m 0 min 2 min 39 W/m 9,7 km/h (2 Bft) 93,62 %
16.08.2021 17:58 14,2 C 12,8 C 12,3 C 92 % 1014,8 hPa 0,2 l/m 0 min 2 min 45 W/m 6,4 km/h (2 Bft) 97,83 %
16.08.2021 18:00 14,2 C 12,8 C 12,3 C 92 % 1014,9 hPa 0,0 l/m 0 min 2 min 51 W/m 9,7 km/h (2 Bft) 97,14 %
16.08.2021 18:02 14,2 C 13,3 C 12,3 C 92 % 1015,0 hPa 0,0 l/m 0 min 2 min 53 W/m 16,1 km/h (3 Bft) 95,74 %
16.08.2021 18:04 14,2 C 13,3 C 12,3 C 92 % 1015,0 hPa 0,0 l/m 0 min 2 min 57 W/m 6,4 km/h (2 Bft) 100,00 %
16.08.2021 18:08 14,2 C 13,3 C 12,3 C 93 % 1015,0 hPa 0,0 l/m 0 min 4 min 59 W/m 22,5 km/h (4 Bft) 97,87 %
16.08.2021 18:10 14,2 C 13,3 C 12,3 C 93 % 1015,0 hPa 0,0 l/m 0 min 2 min 55 W/m 9,7 km/h (2 Bft) 54,55 %
16.08.2021 18:12 14,2 C 13,3 C 12,3 C 93 % 1015,0 hPa 0,0 l/m 0 min 2 min 58 W/m 12,9 km/h (3 Bft) 91,30 %
16.08.2021 18:14 14,2 C 13,3 C 12,3 C 93 % 1015,1 hPa 0,0 l/m 0 min 0 min 58 W/m 16,1 km/h (3 Bft) 97,87 %
16.08.2021 18:16 14,2 C 13,3 C 12,3 C 93 % 1015,1 hPa 0,0 l/m 0 min 0 min 57 W/m 12,9 km/h (3 Bft) 95,74 %
16.08.2021 18:18 14,2 C 13,3 C 12,3 C 93 % 1015,1 hPa 0,0 l/m 0 min 0 min 56 W/m 12,9 km/h (3 Bft) 97,87 %
16.08.2021 18:20 14,2 C 13,3 C 12,3 C 93 % 1015,2 hPa 0,0 l/m 0 min 0 min 60 W/m 12,9 km/h (3 Bft) 97,87 %
16.08.2021 18:22 14,2 C 13,3 C 12,3 C 93 % 1015,2 hPa 0,0 l/m 0 min 0 min 63 W/m 19,3 km/h (3 Bft) 95,65 %
16.08.2021 18:24 14,2 C 13,3 C 12,3 C 93 % 1015,1 hPa 0,0 l/m 0 min 0 min 62 W/m 16,1 km/h (3 Bft) 97,87 %
16.08.2021 18:26 14,2 C 13,3 C 12,3 C 93 % 1015,2 hPa 0,0 l/m 0 min 0 min 60 W/m 12,9 km/h (3 Bft) 95,74 %
16.08.2021 18:28 14,2 C 13,3 C 12,3 C 93 % 1015,1 hPa 0,0 l/m 0 min 0 min 55 W/m 12,9 km/h (3 Bft) 97,87 %
16.08.2021 18:30 14,2 C 13,3 C 12,3 C 93 % 1015,1 hPa 0,0 l/m 0 min 0 min 55 W/m 16,1 km/h (3 Bft) 100,00 %
16.08.2021 18:32 14,1 C 13,3 C 12,3 C 93 % 1015,0 hPa 0,0 l/m 0 min 0 min 59 W/m 9,7 km/h (2 Bft) 100,00 %
16.08.2021 18:34 14,1 C 13,3 C 12,3 C 93 % 1015,0 hPa 0,0 l/m 0 min 0 min 61 W/m 9,7 km/h (2 Bft) 100,00 %
16.08.2021 18:36 14,1 C 13,3 C 11,7 C 93 % 1015,1 hPa 0,0 l/m 0 min 0 min 65 W/m 6,4 km/h (2 Bft) 100,00 %
16.08.2021 18:38 14,1 C 13,3 C 12,3 C 93 % 1015,0 hPa 0,0 l/m 0 min 0 min 74 W/m 12,9 km/h (3 Bft) 100,00 %
16.08.2021 18:40 14,1 C 13,3 C 12,3 C 93 % 1015,0 hPa 0,0 l/m 0 min 0 min 80 W/m 12,9 km/h (3 Bft) 100,00 %
16.08.2021 18:42 14,1 C 13,3 C 12,3 C 93 % 1015,0 hPa 0,0 l/m 0 min 0 min 83 W/m 12,9 km/h (3 Bft) 100,00 %
16.08.2021 18:44 14,1 C 13,3 C 12,3 C 93 % 1015,1 hPa 0,0 l/m 0 min 0 min 86 W/m 19,3 km/h (3 Bft) 100,00 %
16.08.2021 18:46 14,1 C 13,9 C 12,3 C 93 % 1015,1 hPa 0,0 l/m 0 min 0 min 90 W/m 16,1 km/h (3 Bft) 100,00 %
16.08.2021 18:48 14,1 C 13,9 C 12,3 C 92 % 1015,1 hPa 0,0 l/m 0 min 0 min 95 W/m 16,1 km/h (3 Bft) 97,96 %
16.08.2021 18:50 14,2 C 13,9 C 12,3 C 92 % 1015,1 hPa 0,0 l/m 0 min 0 min 99 W/m 16,1 km/h (3 Bft) 100,00 %
16.08.2021 18:52 14,2 C 13,9 C 12,3 C 92 % 1015,1 hPa 0,0 l/m 0 min 0 min 103 W/m 16,1 km/h (3 Bft) 97,87 %
16.08.2021 18:54 14,2 C 13,9 C 12,3 C 92 % 1015,1 hPa 0,0 l/m 0 min 0 min 105 W/m 19,3 km/h (3 Bft) 100,00 %
16.08.2021 18:56 14,2 C 13,9 C 12,3 C 92 % 1015,2 hPa 0,0 l/m 0 min 0 min 117 W/m 12,9 km/h (3 Bft) 100,00 %
16.08.2021 18:58 14,2 C 13,9 C 12,3 C 92 % 1015,1 hPa 0,0 l/m 2 min 0 min 235 W/m 16,1 km/h (3 Bft) 97,87 %
16.08.2021 19:00 14,2 C 14,4 C 12,3 C 92 % 1015,1 hPa 0,0 l/m 2 min 0 min 326 W/m 12,9 km/h (3 Bft) 100,00 %
16.08.2021 19:02 14,3 C 14,4 C 12,8 C 92 % 1015,1 hPa 0,0 l/m 2 min 0 min 327 W/m 12,9 km/h (3 Bft) 100,00 %
16.08.2021 19:04 14,4 C 15,0 C 12,8 C 93 % 1015,1 hPa 0,0 l/m 2 min 0 min 274 W/m 6,4 km/h (2 Bft) 100,00 %
16.08.2021 19:06 14,5 C 15,0 C 12,8 C 92 % 1015,1 hPa 0,0 l/m 2 min 0 min 175 W/m 16,1 km/h (3 Bft) 100,00 %
16.08.2021 19:08 14,6 C 15,0 C 12,8 C 92 % 1015,1 hPa 0,0 l/m 2 min 0 min 134 W/m 19,3 km/h (3 Bft) 100,00 %
16.08.2021 19:10 14,6 C 15,0 C 12,8 C 92 % 1015,2 hPa 0,0 l/m 0 min 0 min 110 W/m 12,9 km/h (3 Bft) 97,87 %
16.08.2021 19:12 14,6 C 14,4 C 12,8 C 92 % 1015,2 hPa 0,0 l/m 0 min 0 min 91 W/m 12,9 km/h (3 Bft) 97,96 %
16.08.2021 19:14 14,7 C 14,4 C 12,3 C 91 % 1015,2 hPa 0,0 l/m 0 min 0 min 81 W/m 19,3 km/h (3 Bft) 97,87 %
16.08.2021 19:16 14,6 C 14,4 C 12,3 C 91 % 1015,2 hPa 0,0 l/m 0 min 0 min 70 W/m 19,3 km/h (3 Bft) 97,92 %
16.08.2021 19:18 14,7 C 14,4 C 12,3 C 90 % 1015,3 hPa 0,0 l/m 0 min 0 min 65 W/m 19,3 km/h (3 Bft) 95,74 %
16.08.2021 19:20 14,7 C 14,4 C 12,3 C 90 % 1015,3 hPa 0,0 l/m 0 min 0 min 62 W/m 16,1 km/h (3 Bft) 97,83 %
16.08.2021 19:22 14,7 C 14,4 C 12,3 C 90 % 1015,3 hPa 0,0 l/m 0 min 0 min 60 W/m 12,9 km/h (3 Bft) 97,87 %
16.08.2021 19:24 14,7 C 14,4 C 12,3 C 90 % 1015,3 hPa 0,0 l/m 0 min 0 min 58 W/m 12,9 km/h (3 Bft) 97,87 %
16.08.2021 19:26 14,7 C 14,4 C 12,3 C 90 % 1015,3 hPa 0,0 l/m 0 min 0 min 56 W/m 12,9 km/h (3 Bft) 95,74 %
16.08.2021 19:28 14,7 C 14,4 C 12,3 C 90 % 1015,3 hPa 0,0 l/m 0 min 0 min 54 W/m 16,1 km/h (3 Bft) 95,74 %
16.08.2021 19:30 14,7 C 14,4 C 12,3 C 90 % 1015,2 hPa 0,0 l/m 0 min 0 min 54 W/m 16,1 km/h (3 Bft) 95,74 %
16.08.2021 19:32 14,7 C 14,4 C 12,3 C 89 % 1015,3 hPa 0,0 l/m 0 min 0 min 53 W/m 12,9 km/h (3 Bft) 95,65 %
16.08.2021 19:34 14,7 C 14,4 C 12,3 C 90 % 1015,3 hPa 0,0 l/m 0 min 0 min 53 W/m 12,9 km/h (3 Bft) 95,74 %
16.08.2021 19:36 14,7 C 14,4 C 12,3 C 89 % 1015,3 hPa 0,0 l/m 0 min 0 min 51 W/m 19,3 km/h (3 Bft) 95,74 %
16.08.2021 19:38 14,6 C 14,4 C 12,3 C 89 % 1015,4 hPa 0,0 l/m 0 min 0 min 51 W/m 6,4 km/h (2 Bft) 93,62 %
16.08.2021 19:40 14,7 C 14,4 C 12,3 C 89 % 1015,4 hPa 0,0 l/m 0 min 0 min 51 W/m 9,7 km/h (2 Bft) 95,74 %
16.08.2021 19:42 14,7 C 14,4 C 12,3 C 89 % 1015,4 hPa 0,0 l/m 0 min 0 min 48 W/m 16,1 km/h (3 Bft) 94,34 %
16.08.2021 19:44 14,6 C 14,4 C 12,3 C 89 % 1015,4 hPa 0,0 l/m 0 min 0 min 60 W/m 9,7 km/h (2 Bft) 95,74 %
16.08.2021 19:46 14,6 C 13,9 C 12,3 C 89 % 1015,5 hPa 0,0 l/m 0 min 0 min 60 W/m 16,1 km/h (3 Bft) 93,48 %
16.08.2021 19:48 14,6 C 14,4 C 12,3 C 89 % 1015,4 hPa 0,0 l/m 2 min 0 min 79 W/m 19,3 km/h (3 Bft) 93,62 %
16.08.2021 19:50 14,6 C 14,4 C 12,8 C 89 % 1015,4 hPa 0,0 l/m 0 min 0 min 70 W/m 12,9 km/h (3 Bft) 91,49 %
16.08.2021 19:52 14,6 C 14,4 C 12,8 C 89 % 1015,5 hPa 0,0 l/m 0 min 0 min 50 W/m 16,1 km/h (3 Bft) 93,62 %
16.08.2021 19:54 14,6 C 13,9 C 12,8 C 89 % 1015,5 hPa 0,0 l/m 0 min 0 min 49 W/m 9,7 km/h (2 Bft) 93,62 %
16.08.2021 19:56 14,6 C 13,9 C 12,8 C 89 % 1015,5 hPa 0,0 l/m 0 min 0 min 56 W/m 12,9 km/h (3 Bft) 93,62 %
16.08.2021 19:58 14,6 C 13,9 C 12,8 C 89 % 1015,5 hPa 0,0 l/m 2 min 0 min 66 W/m 12,9 km/h (3 Bft) 91,30 %
16.08.2021 20:00 14,6 C 13,9 C 12,8 C 89 % 1015,5 hPa 0,0 l/m 2 min 0 min 77 W/m 6,4 km/h (2 Bft) 93,62 %
16.08.2021 20:02 14,6 C 13,9 C 12,8 C 89 % 1015,5 hPa 0,0 l/m 2 min 0 min 65 W/m 12,9 km/h (3 Bft) 94,44 %
16.08.2021 20:04 14,5 C 13,9 C 12,8 C 89 % 1015,4 hPa 0,0 l/m 0 min 0 min 47 W/m 12,9 km/h (3 Bft) 94,92 %
16.08.2021 20:06 14,5 C 13,9 C 12,8 C 90 % 1015,5 hPa 0,0 l/m 0 min 0 min 38 W/m 12,9 km/h (3 Bft) 95,74 %
16.08.2021 20:08 14,5 C 13,9 C 12,8 C 90 % 1015,5 hPa 0,0 l/m 0 min 0 min 39 W/m 12,9 km/h (3 Bft) 97,87 %
16.08.2021 20:10 14,5 C 13,9 C 12,8 C 90 % 1015,5 hPa 0,0 l/m 0 min 0 min 40 W/m 16,1 km/h (3 Bft) 97,14 %
16.08.2021 20:12 14,5 C 13,9 C 12,8 C 90 % 1015,5 hPa 0,0 l/m 0 min 0 min 43 W/m 12,9 km/h (3 Bft) 97,87 %
16.08.2021 20:14 14,5 C 13,9 C 12,8 C 90 % 1015,5 hPa 0,0 l/m 0 min 0 min 39 W/m 9,7 km/h (2 Bft) 97,83 %
16.08.2021 20:16 14,5 C 13,9 C 12,8 C 90 % 1015,5 hPa 0,0 l/m 0 min 0 min 39 W/m 12,9 km/h (3 Bft) 95,74 %
16.08.2021 20:18 14,5 C 13,9 C 12,8 C 90 % 1015,5 hPa 0,0 l/m 0 min 0 min 31 W/m 9,7 km/h (2 Bft) 97,87 %
16.08.2021 20:20 14,4 C 13,9 C 12,8 C 90 % 1015,5 hPa 0,0 l/m 0 min 0 min 25 W/m 6,4 km/h (2 Bft) 97,87 %
16.08.2021 20:22 14,4 C 13,9 C 12,8 C 90 % 1015,6 hPa 0,0 l/m 0 min 0 min 22 W/m 12,9 km/h (3 Bft) 97,87 %
16.08.2021 20:24 14,4 C 13,9 C 12,8 C 90 % 1015,7 hPa 0,0 l/m 0 min 0 min 21 W/m 12,9 km/h (3 Bft) 86,96 %
16.08.2021 20:26 14,4 C 13,9 C 12,8 C 90 % 1015,7 hPa 0,0 l/m 0 min 0 min 20 W/m 16,1 km/h (3 Bft) 100,00 %
16.08.2021 20:28 14,5 C 13,9 C 12,8 C 90 % 1015,7 hPa 0,0 l/m 0 min 0 min 19 W/m 12,9 km/h (3 Bft) 100,00 %
16.08.2021 20:30 14,5 C 13,9 C 12,8 C 90 % 1015,8 hPa 0,0 l/m 0 min 0 min 18 W/m 6,4 km/h (2 Bft) 100,00 %
16.08.2021 20:32 14,5 C 13,9 C 12,8 C 90 % 1015,8 hPa 0,0 l/m 0 min 0 min 16 W/m 6,4 km/h (2 Bft) 100,00 %
16.08.2021 20:34 14,5 C 13,9 C 12,8 C 90 % 1015,8 hPa 0,0 l/m 0 min 0 min 15 W/m 22,5 km/h (4 Bft) 97,87 %
16.08.2021 20:36 14,4 C 13,9 C 12,8 C 90 % 1015,8 hPa 0,0 l/m 0 min 0 min 14 W/m 12,9 km/h (3 Bft) 100,00 %
16.08.2021 20:38 14,4 C 13,9 C 12,8 C 90 % 1015,9 hPa 0,0 l/m 0 min 0 min 12 W/m 6,4 km/h (2 Bft) 100,00 %
16.08.2021 20:40 14,4 C 13,9 C 12,8 C 90 % 1016,0 hPa 0,0 l/m 0 min 0 min 12 W/m 12,9 km/h (3 Bft) 100,00 %
16.08.2021 20:42 14,4 C 13,9 C 12,8 C 89 % 1016,0 hPa 0,0 l/m 0 min 0 min 11 W/m 16,1 km/h (3 Bft) 100,00 %
16.08.2021 20:44 14,4 C 13,9 C 12,8 C 90 % 1016,1 hPa 0,0 l/m 0 min 0 min 10 W/m 9,7 km/h (2 Bft) 100,00 %
16.08.2021 20:46 14,4 C 13,9 C 12,3 C 90 % 1016,2 hPa 0,0 l/m 0 min 0 min 9 W/m 9,7 km/h (2 Bft) 100,00 %
16.08.2021 20:48 14,4 C 13,9 C 12,3 C 90 % 1016,2 hPa 0,0 l/m 0 min 0 min 7 W/m 9,7 km/h (2 Bft) 100,00 %
16.08.2021 20:50 14,3 C 13,9 C 12,3 C 89 % 1016,3 hPa 0,0 l/m 0 min 0 min 7 W/m 16,1 km/h (3 Bft) 100,00 %
16.08.2021 20:52 14,3 C 13,9 C 12,3 C 89 % 1016,3 hPa 0,0 l/m 0 min 0 min 5 W/m 19,3 km/h (3 Bft) 100,00 %
16.08.2021 20:54 14,2 C 13,9 C 12,3 C 89 % 1016,3 hPa 0,0 l/m 0 min 0 min 5 W/m 6,4 km/h (2 Bft) 100,00 %
16.08.2021 20:56 14,2 C 13,3 C 12,3 C 89 % 1016,4 hPa 0,0 l/m 0 min 0 min 2 W/m 6,4 km/h (2 Bft) 100,00 %
16.08.2021 20:58 14,2 C 13,3 C 12,3 C 89 % 1016,5 hPa 0,0 l/m 0 min 0 min 0 W/m 6,4 km/h (2 Bft) 100,00 %
16.08.2021 21:00 14,2 C 13,3 C 12,3 C 89 % 1016,4 hPa 0,0 l/m 0 min 0 min 0 W/m 9,7 km/h (2 Bft) 100,00 %
16.08.2021 21:02 14,2 C 13,3 C 12,3 C 90 % 1016,5 hPa 0,0 l/m 0 min 0 min 0 W/m 6,4 km/h (2 Bft) 100,00 %
16.08.2021 21:04 14,2 C 13,3 C 12,3 C 89 % 1016,5 hPa 0,0 l/m 0 min 0 min 0 W/m 6,4 km/h (2 Bft) 100,00 %
16.08.2021 21:06 14,2 C 13,3 C 12,3 C 89 % 1016,5 hPa 0,0 l/m 0 min 0 min 0 W/m 16,1 km/h (3 Bft) 100,00 %
16.08.2021 21:08 14,2 C 13,3 C 12,3 C 90 % 1016,6 hPa 0,0 l/m 0 min 0 min 0 W/m 12,9 km/h (3 Bft) 100,00 %
16.08.2021 21:10 14,1 C 13,3 C 12,3 C 90 % 1016,6 hPa 0,0 l/m 0 min 0 min 0 W/m 6,4 km/h (2 Bft) 100,00 %
16.08.2021 21:12 14,1 C 13,3 C 12,3 C 90 % 1016,7 hPa 0,0 l/m 0 min 0 min 0 W/m 9,7 km/h (2 Bft) 95,74 %
16.08.2021 21:14 14,1 C 13,3 C 12,3 C 90 % 1016,7 hPa 0,0 l/m 0 min 0 min 0 W/m 12,9 km/h (3 Bft) 100,00 %
16.08.2021 21:16 14,1 C 13,3 C 12,3 C 90 % 1016,6 hPa 0,0 l/m 0 min 0 min 0 W/m 6,4 km/h (2 Bft) 97,87 %
16.08.2021 21:18 14,0 C 13,3 C 12,3 C 90 % 1016,7 hPa 0,0 l/m 0 min 0 min 0 W/m 16,1 km/h (3 Bft) 100,00 %
16.08.2021 21:20 14,0 C 13,3 C 12,3 C 90 % 1016,6 hPa 0,0 l/m 0 min 0 min 0 W/m 12,9 km/h (3 Bft) 100,00 %
16.08.2021 21:22 14,0 C 13,3 C 12,3 C 90 % 1016,7 hPa 0,0 l/m 0 min 0 min 0 W/m 6,4 km/h (2 Bft) 100,00 %
16.08.2021 21:24 14,0 C 13,3 C 12,3 C 90 % 1016,7 hPa 0,0 l/m 0 min 0 min 0 W/m 6,4 km/h (2 Bft) 100,00 %
16.08.2021 21:26 13,9 C 13,3 C 12,3 C 90 % 1016,8 hPa 0,0 l/m 0 min 0 min 0 W/m 12,9 km/h (3 Bft) 100,00 %
16.08.2021 21:28 13,9 C 13,3 C 12,3 C 90 % 1016,8 hPa 0,0 l/m 0 min 0 min 0 W/m 9,7 km/h (2 Bft) 100,00 %
16.08.2021 21:30 13,9 C 12,8 C 12,3 C 90 % 1016,8 hPa 0,0 l/m 0 min 0 min 0 W/m 9,7 km/h (2 Bft) 100,00 %
16.08.2021 21:32 13,9 C 12,8 C 12,3 C 89 % 1016,9 hPa 0,0 l/m 0 min 0 min 0 W/m 6,4 km/h (2 Bft) 100,00 %
16.08.2021 21:34 13,9 C 12,8 C 12,3 C 89 % 1016,9 hPa 0,0 l/m 0 min 0 min 0 W/m 6,4 km/h (2 Bft) 100,00 %
16.08.2021 21:36 13,9 C 12,8 C 12,3 C 89 % 1016,9 hPa 0,0 l/m 0 min 0 min 0 W/m 6,4 km/h (2 Bft) 97,87 %
16.08.2021 21:38 13,8 C 12,8 C 12,3 C 89 % 1016,9 hPa 0,0 l/m 0 min 0 min 0 W/m 6,4 km/h (2 Bft) 97,87 %
16.08.2021 21:40 13,8 C 12,8 C 12,3 C 89 % 1016,9 hPa 0,0 l/m 0 min 0 min 0 W/m 6,4 km/h (2 Bft) 97,87 %
16.08.2021 21:42 13,8 C 12,8 C 12,3 C 89 % 1017,0 hPa 0,0 l/m 0 min 0 min 0 W/m 6,4 km/h (2 Bft) 95,74 %
16.08.2021 21:44 13,8 C 12,8 C 12,3 C 89 % 1017,0 hPa 0,0 l/m 0 min 0 min 0 W/m 12,9 km/h (3 Bft) 97,83 %
16.08.2021 21:46 13,8 C 12,8 C 12,3 C 89 % 1017,0 hPa 0,0 l/m 0 min 0 min 0 W/m 12,9 km/h (3 Bft) 95,74 %
16.08.2021 21:48 13,8 C 12,8 C 12,3 C 89 % 1017,1 hPa 0,0 l/m 0 min 0 min 0 W/m 9,7 km/h (2 Bft) 95,74 %
16.08.2021 21:50 13,8 C 12,8 C 12,3 C 89 % 1017,1 hPa 0,0 l/m 0 min 0 min 0 W/m 12,9 km/h (3 Bft) 97,87 %
16.08.2021 21:52 13,7 C 12,8 C 12,3 C 89 % 1017,1 hPa 0,0 l/m 0 min 0 min 0 W/m 9,7 km/h (2 Bft) 93,62 %
16.08.2021 21:54 13,7 C 12,8 C 12,3 C 89 % 1017,1 hPa 0,0 l/m 0 min 0 min 0 W/m 9,7 km/h (2 Bft) 95,74 %
16.08.2021 21:56 13,6 C 12,8 C 12,3 C 89 % 1017,2 hPa 0,0 l/m 0 min 0 min 0 W/m 6,4 km/h (2 Bft) 95,74 %
16.08.2021 21:58 13,6 C 12,8 C 12,3 C 89 % 1017,2 hPa 0,0 l/m 0 min 0 min 0 W/m 6,4 km/h (2 Bft) 95,65 %
16.08.2021 22:00 13,6 C 12,8 C 12,3 C 89 % 1017,3 hPa 0,0 l/m 0 min 0 min 0 W/m 9,7 km/h (2 Bft) 93,62 %
16.08.2021 22:02 13,6 C 12,8 C 12,3 C 89 % 1017,3 hPa 0,0 l/m 0 min 0 min 0 W/m 6,4 km/h (2 Bft) 97,87 %
16.08.2021 22:04 13,6 C 12,8 C 12,3 C 89 % 1017,2 hPa 0,0 l/m 0 min 0 min 0 W/m 12,9 km/h (3 Bft) 95,74 %
16.08.2021 22:06 13,6 C 12,8 C 11,7 C 89 % 1017,3 hPa 0,0 l/m 0 min 0 min 0 W/m 9,7 km/h (2 Bft) 95,74 %
16.08.2021 22:08 13,5 C 12,8 C 11,7 C 88 % 1017,3 hPa 0,0 l/m 0 min 0 min 0 W/m 6,4 km/h (2 Bft) 97,83 %
16.08.2021 22:10 13,5 C 12,8 C 12,3 C 88 % 1017,3 hPa 0,0 l/m 0 min 0 min 0 W/m 6,4 km/h (2 Bft) 97,87 %
16.08.2021 22:12 13,5 C 12,8 C 12,3 C 88 % 1017,3 hPa 0,0 l/m 0 min 0 min 0 W/m 12,9 km/h (3 Bft) 97,87 %
16.08.2021 22:14 13,4 C 12,8 C 12,3 C 88 % 1017,3 hPa 0,0 l/m 0 min 0 min 0 W/m 12,9 km/h (3 Bft) 97,87 %
16.08.2021 22:16 13,4 C 12,8 C 12,3 C 87 % 1017,3 hPa 0,0 l/m 0 min 0 min 0 W/m 9,7 km/h (2 Bft) 97,87 %
16.08.2021 22:18 13,4 C 12,8 C 11,7 C 87 % 1017,4 hPa 0,0 l/m 0 min 0 min 0 W/m 6,4 km/h (2 Bft) 97,87 %
16.08.2021 22:20 13,4 C 12,8 C 11,7 C 87 % 1017,4 hPa 0,0 l/m 0 min 0 min 0 W/m 12,9 km/h (3 Bft) 95,65 %
16.08.2021 22:22 13,3 C 12,8 C 11,7 C 87 % 1017,5 hPa 0,0 l/m 0 min 0 min 0 W/m 12,9 km/h (3 Bft) 93,62 %
16.08.2021 22:24 13,3 C 12,8 C 11,7 C 86 % 1017,5 hPa 0,0 l/m 0 min 0 min 0 W/m 12,9 km/h (3 Bft) 91,49 %
16.08.2021 22:26 13,3 C 12,8 C 11,7 C 86 % 1017,5 hPa 0,0 l/m 0 min 0 min 0 W/m 6,4 km/h (2 Bft) 93,62 %
16.08.2021 22:28 13,3 C 12,8 C 11,7 C 86 % 1017,5 hPa 0,0 l/m 0 min 0 min 0 W/m 9,7 km/h (2 Bft) 93,62 %
16.08.2021 22:30 13,3 C 12,8 C 11,7 C 87 % 1017,5 hPa 0,0 l/m 0 min 0 min 0 W/m 6,4 km/h (2 Bft) 97,87 %
16.08.2021 22:32 13,3 C 12,2 C 11,7 C 87 % 1017,5 hPa 0,0 l/m 0 min 0 min 0 W/m 6,4 km/h (2 Bft) 95,74 %
16.08.2021 22:34 13,3 C 12,8 C 11,7 C 87 % 1017,5 hPa 0,0 l/m 0 min 0 min 0 W/m 6,4 km/h (2 Bft) 93,62 %
16.08.2021 22:36 13,3 C 12,8 C 11,7 C 87 % 1017,5 hPa 0,0 l/m 0 min 0 min 0 W/m 16,1 km/h (3 Bft) 95,74 %
16.08.2021 22:38 13,2 C 12,8 C 11,7 C 86 % 1017,5 hPa 0,0 l/m 0 min 0 min 0 W/m 6,4 km/h (2 Bft) 97,83 %
16.08.2021 22:40 13,2 C 12,2 C 11,7 C 87 % 1017,6 hPa 0,0 l/m 0 min 0 min 0 W/m 6,4 km/h (2 Bft) 95,74 %
16.08.2021 22:42 13,2 C 12,2 C 11,7 C 86 % 1017,6 hPa 0,0 l/m 0 min 0 min 0 W/m 9,7 km/h (2 Bft) 97,87 %
16.08.2021 22:44 13,1 C 12,2 C 11,7 C 86 % 1017,6 hPa 0,0 l/m 0 min 0 min 0 W/m 6,4 km/h (2 Bft) 97,87 %
16.08.2021 22:46 13,1 C 12,2 C 11,7 C 86 % 1017,7 hPa 0,0 l/m 0 min 0 min 0 W/m 9,7 km/h (2 Bft) 97,87 %
16.08.2021 22:48 13,1 C 12,2 C 11,7 C 86 % 1017,6 hPa 0,0 l/m 0 min 0 min 0 W/m 6,4 km/h (2 Bft) 97,87 %
16.08.2021 22:50 13,1 C 12,2 C 11,7 C 86 % 1017,6 hPa 0,0 l/m 0 min 0 min 0 W/m 9,7 km/h (2 Bft) 97,83 %
16.08.2021 22:52 13,0 C 12,2 C 11,7 C 86 % 1017,6 hPa 0,0 l/m 0 min 0 min 0 W/m 6,4 km/h (2 Bft) 97,87 %
16.08.2021 22:54 13,0 C 12,2 C 11,7 C 86 % 1017,7 hPa 0,0 l/m 0 min 0 min 0 W/m 6,4 km/h (2 Bft) 95,74 %
16.08.2021 22:56 13,0 C 12,2 C 11,7 C 86 % 1017,7 hPa 0,0 l/m 0 min 0 min 0 W/m 6,4 km/h (2 Bft) 97,87 %
16.08.2021 22:58 13,0 C 12,2 C 11,7 C 86 % 1017,8 hPa 0,0 l/m 0 min 0 min 0 W/m 6,4 km/h (2 Bft) 97,87 %
16.08.2021 23:00 13,0 C 12,2 C 11,7 C 85 % 1017,8 hPa 0,0 l/m 0 min 0 min 0 W/m 9,7 km/h (2 Bft) 95,65 %
16.08.2021 23:02 12,9 C 12,2 C 11,7 C 85 % 1017,8 hPa 0,0 l/m 0 min 0 min 0 W/m 12,9 km/h (3 Bft) 97,87 %
16.08.2021 23:04 12,9 C 12,2 C 11,7 C 85 % 1017,8 hPa 0,0 l/m 0 min 0 min 0 W/m 9,7 km/h (2 Bft) 97,87 %
16.08.2021 23:06 12,9 C 12,2 C 11,1 C 85 % 1017,9 hPa 0,0 l/m 0 min 0 min 0 W/m 9,7 km/h (2 Bft) 97,87 %
16.08.2021 23:08 12,9 C 12,2 C 11,1 C 84 % 1017,9 hPa 0,0 l/m 0 min 0 min 0 W/m 12,9 km/h (3 Bft) 97,87 %
16.08.2021 23:10 12,9 C 12,2 C 11,1 C 84 % 1017,9 hPa 0,0 l/m 0 min 0 min 0 W/m 6,4 km/h (2 Bft) 97,87 %
16.08.2021 23:12 12,8 C 12,2 C 11,1 C 84 % 1017,9 hPa 0,0 l/m 0 min 0 min 0 W/m 3,2 km/h (1 Bft) 93,48 %
16.08.2021 23:14 12,8 C 12,2 C 11,1 C 84 % 1018,0 hPa 0,0 l/m 0 min 0 min 0 W/m 3,2 km/h (1 Bft) 97,87 %
16.08.2021 23:16 12,8 C 12,2 C 11,1 C 84 % 1018,0 hPa 0,0 l/m 0 min 0 min 0 W/m 6,4 km/h (2 Bft) 97,87 %
16.08.2021 23:18 12,8 C 12,2 C 11,1 C 84 % 1018,0 hPa 0,0 l/m 0 min 0 min 0 W/m 12,9 km/h (3 Bft) 100,00 %
16.08.2021 23:20 12,8 C 12,2 C 11,1 C 84 % 1018,0 hPa 0,0 l/m 0 min 0 min 0 W/m 9,7 km/h (2 Bft) 100,00 %
16.08.2021 23:22 12,8 C 12,2 C 11,1 C 84 % 1018,0 hPa 0,0 l/m 0 min 0 min 0 W/m 6,4 km/h (2 Bft) 100,00 %
16.08.2021 23:24 12,8 C 12,2 C 11,1 C 83 % 1018,0 hPa 0,0 l/m 0 min 0 min 0 W/m 12,9 km/h (3 Bft) 100,00 %
16.08.2021 23:26 12,7 C 12,2 C 11,1 C 83 % 1018,0 hPa 0,0 l/m 0 min 0 min 0 W/m 6,4 km/h (2 Bft) 95,74 %
16.08.2021 23:28 12,7 C 12,2 C 11,1 C 83 % 1018,0 hPa 0,0 l/m 0 min 0 min 0 W/m 6,4 km/h (2 Bft) 97,87 %
16.08.2021 23:30 12,7 C 12,2 C 11,1 C 83 % 1018,0 hPa 0,0 l/m 0 min 0 min 0 W/m 9,7 km/h (2 Bft) 97,87 %
16.08.2021 23:32 12,6 C 12,2 C 11,1 C 83 % 1018,1 hPa 0,0 l/m 0 min 0 min 0 W/m 3,2 km/h (1 Bft) 95,74 %
16.08.2021 23:34 12,7 C 12,2 C 11,1 C 83 % 1018,0 hPa 0,0 l/m 0 min 0 min 0 W/m 3,2 km/h (1 Bft) 97,87 %
16.08.2021 23:36 12,7 C 12,2 C 11,1 C 84 % 1018,0 hPa 0,0 l/m 0 min 0 min 0 W/m 6,4 km/h (2 Bft) 96,23 %
16.08.2021 23:38 12,6 C 11,7 C 11,1 C 84 % 1017,9 hPa 0,0 l/m 0 min 0 min 0 W/m 6,4 km/h (2 Bft) 97,30 %
16.08.2021 23:40 12,6 C 11,7 C 11,1 C 84 % 1017,9 hPa 0,0 l/m 0 min 0 min 0 W/m 12,9 km/h (3 Bft) 97,87 %
16.08.2021 23:42 12,6 C 11,7 C 11,1 C 84 % 1017,9 hPa 0,0 l/m 0 min 0 min 0 W/m 9,7 km/h (2 Bft) 97,87 %
16.08.2021 23:44 12,5 C 11,7 C 11,1 C 84 % 1017,9 hPa 0,0 l/m 0 min 0 min 0 W/m 12,9 km/h (3 Bft) 97,83 %
16.08.2021 23:46 12,5 C 11,7 C 11,1 C 84 % 1017,9 hPa 0,0 l/m 0 min 0 min 0 W/m 6,4 km/h (2 Bft) 97,87 %
16.08.2021 23:48 12,5 C 11,7 C 11,1 C 84 % 1017,9 hPa 0,0 l/m 0 min 0 min 0 W/m 9,7 km/h (2 Bft) 97,87 %
16.08.2021 23:50 12,5 C 11,7 C 11,1 C 84 % 1017,9 hPa 0,0 l/m 0 min 0 min 0 W/m 16,1 km/h (3 Bft) 95,74 %
16.08.2021 23:52 12,5 C 11,7 C 11,1 C 84 % 1017,9 hPa 0,0 l/m 0 min 0 min 0 W/m 12,9 km/h (3 Bft) 97,87 %
16.08.2021 23:54 12,5 C 11,7 C 11,1 C 84 % 1017,9 hPa 0,0 l/m 0 min 0 min 0 W/m 9,7 km/h (2 Bft) 97,83 %
16.08.2021 23:56 12,5 C 12,2 C 11,1 C 85 % 1017,9 hPa 0,0 l/m 0 min 0 min 0 W/m 6,4 km/h (2 Bft) 97,87 %
16.08.2021 23:58 12,5 C 12,2 C 11,1 C 85 % 1017,9 hPa 0,0 l/m 0 min 0 min 0 W/m 12,9 km/h (3 Bft) 97,87 %
_ Min-Zeit 23:44 23:38 23:06 02:06 09:04 - - - - 00:44 18:10
Minimum _ 12,5 C 11,7 C 11,1 C 78 % 1010,1 hPa - - - - 3,2 km/h (1 Bft) 54,55 %
_ Max-Zeit 00:00 00:00 11:24 12:56 23:32 12:12 08:46 12:08 08:58 08:56 00:00
Maximum _ 19,7 C 18,9 C 17,3 C 95 % 1018,1 hPa 0,6 l/m 2 min 4 min 411 W/m 38,6 km/h
O-SO (5 Bft)
100,00 %
Durchschnitt _ 16,0 C 15,5 C 13,9 C 86 % 1012,6 hPa #4,0 l/m #52 min. #2:14 h 119 W/m 14,7 km/h (3 Bft) 96,65 %
© 2021 W. Hausmann